| time (UTC) | temp F | wind direction | speed MPH | gust MPH | rain 1hr in | rain 24hr in | rain mn in | humidity % | barometer mb |
| 20260510203848 | 57 | 153 | 0.0 | 2.0 | 0.00 | 0.00 | 0.00 | 66 | 1009.5 |
| 20260510203825 | 57 | 142 | 1.0 | 2.0 | 0.00 | 0.00 | 0.00 | 66 | 1009.4 |
| 20260510203810 | 57 | 94 | 1.0 | 2.0 | 0.00 | 0.00 | 0.00 | 66 | 1009.6 |
| 20260510203754 | 57 | 134 | 0.0 | 2.0 | 0.00 | 0.00 | 0.00 | 66 | 1009.2 |
| 20260510203738 | 57 | 138 | 0.0 | 1.0 | 0.00 | 0.00 | 0.00 | 66 | 1009.5 |
| 20260510203722 | 57 | 136 | 0.0 | 1.0 | 0.00 | 0.00 | 0.00 | 66 | 1009.5 |
| 20260510203452 | 57 | 129 | 1.0 | 2.0 | 0.00 | 0.00 | 0.00 | 66 | 1009.5 |
| 20260510203437 | 57 | 138 | 0.0 | 2.0 | 0.00 | 0.00 | 0.00 | 66 | 1009.5 |
| 20260510203420 | 57 | 139 | 0.0 | 2.0 | 0.00 | 0.00 | 0.00 | 66 | 1009.6 |
| 20260510203405 | 57 | 155 | 0.0 | 2.0 | 0.00 | 0.00 | 0.00 | 66 | 1009.3 |
| 20260510203348 | 57 | 155 | 0.0 | 2.0 | 0.00 | 0.00 | 0.00 | 66 | 1009.3 |
| 20260510203122 | 57 | 143 | 0.0 | 2.0 | 0.00 | 0.00 | 0.00 | 66 | 1009.5 |
| 20260510202846 | 57 | 116 | 0.0 | 2.0 | 0.00 | 0.00 | 0.00 | 66 | 1009.4 |
| 20260510202830 | 57 | 135 | 0.0 | 2.0 | 0.00 | 0.00 | 0.00 | 65 | 1009.5 |
| 20260510202813 | 57 | 108 | 1.0 | 2.0 | 0.00 | 0.00 | 0.00 | 66 | 1009.5 |
| 20260510202748 | 57 | 114 | 0.0 | 2.0 | 0.00 | 0.00 | 0.00 | 66 | 1009.6 |
| 20260510202732 | 57 | 134 | 0.0 | 2.0 | 0.00 | 0.00 | 0.00 | 66 | 1009.3 |
| 20260510202453 | 57 | 145 | 0.0 | 3.0 | 0.00 | 0.00 | 0.00 | 66 | 1009.5 |
| 20260510202438 | 58 | 146 | 0.0 | 3.0 | 0.00 | 0.00 | 0.00 | 66 | 1009.3 |
| 20260510201729 | 58 | 121 | 1.0 | 3.0 | 0.00 | 0.00 | 0.00 | 66 | 1009.5 |
| 20260510201714 | 58 | 133 | 0.0 | 3.0 | 0.00 | 0.00 | 0.00 | 65 | 1009.5 |
| 20260510201657 | 58 | 128 | 0.0 | 3.0 | 0.00 | 0.00 | 0.00 | 65 | 1009.5 |
| 20260510201429 | 58 | 130 | 0.0 | 3.0 | 0.00 | 0.00 | 0.00 | 65 | 1009.6 |
| 20260510201412 | 58 | 46 | 2.0 | 3.0 | 0.00 | 0.00 | 0.00 | 64 | 1009.5 |
| 20260510201136 | 58 | 94 | 1.0 | 3.0 | 0.00 | 0.00 | 0.00 | 65 | 1009.5 |
| 20260510201121 | 58 | 107 | 1.0 | 3.0 | 0.00 | 0.00 | 0.00 | 65 | 1009.4 |
| 20260510200632 | 58 | 98 | 1.0 | 3.0 | 0.00 | 0.00 | 0.00 | 65 | 1009.5 |
| 20260510200616 | 58 | 67 | 1.0 | 3.0 | 0.00 | 0.00 | 0.00 | 65 | 1009.6 |
| 20260510200601 | 58 | 153 | 1.0 | 3.0 | 0.00 | 0.00 | 0.00 | 65 | 1009.5 |
| 20260510200112 | 58 | 122 | 0.0 | 3.0 | 0.00 | 0.00 | 0.00 | 65 | 1009.6 |
| 20260510200043 | 58 | 110 | 1.0 | 3.0 | 0.00 | 0.00 | 0.00 | 64 | 1009.5 |
| 20260510200027 | 58 | 108 | 0.0 | 3.0 | 0.00 | 0.00 | 0.00 | 64 | 1009.8 |
| 20260510200012 | 58 | 66 | 1.0 | 3.0 | 0.00 | 0.00 | 0.00 | 64 | 1009.4 |
| 20260510195956 | 58 | 90 | 0.0 | 3.0 | 0.00 | 0.00 | 0.00 | 64 | 1009.8 |
| 20260510195934 | 58 | 125 | 1.0 | 3.0 | 0.00 | 0.00 | 0.00 | 64 | 1009.6 |
| 20260510195438 | 58 | 52 | 1.0 | 3.0 | 0.00 | 0.00 | 0.00 | 64 | 1009.7 |
| 20260510195152 | 59 | 119 | 0.0 | 3.0 | 0.00 | 0.00 | 0.00 | 64 | 1009.7 |
| 20260510194909 | 59 | 51 | 3.0 | 3.0 | 0.00 | 0.00 | 0.00 | 64 | 1009.8 |
| 20260510194852 | 59 | 127 | 0.0 | 3.0 | 0.00 | 0.00 | 0.00 | 64 | 1009.9 |
| 20260510194531 | 59 | 47 | 2.0 | 3.0 | 0.00 | 0.00 | 0.00 | 64 | 1009.8 |
| 20260510194509 | 59 | 81 | 0.0 | 3.0 | 0.00 | 0.00 | 0.00 | 64 | 1009.9 |
| 20260510194454 | 59 | 52 | 3.0 | 3.0 | 0.00 | 0.00 | 0.00 | 63 | 1009.9 |
| 20260510194130 | 59 | 65 | 2.0 | 3.0 | 0.00 | 0.00 | 0.00 | 63 | 1009.7 |
| 20260510194031 | 59 | 57 | 2.0 | 3.0 | 0.00 | 0.00 | 0.00 | 63 | 1009.8 |
| 20260510194007 | 59 | 66 | 2.0 | 3.0 | 0.00 | 0.00 | 0.00 | 63 | 1009.8 |
| 20260510193952 | 59 | 101 | 1.0 | 2.0 | 0.00 | 0.00 | 0.00 | 64 | 1009.9 |
| 20260510193631 | 59 | 133 | 1.0 | 2.0 | 0.00 | 0.00 | 0.00 | 64 | 1009.7 |
| 20260510193532 | 59 | 131 | 1.0 | 2.0 | 0.00 | 0.00 | 0.00 | 64 | 1009.7 |
| 20260510193430 | 59 | 80 | 2.0 | 2.0 | 0.00 | 0.00 | 0.00 | 64 | 1009.8 |
| 20260510193332 | 59 | 115 | 0.0 | 3.0 | 0.00 | 0.00 | 0.00 | 64 | 1009.9 |
| 20260510193232 | 59 | 80 | 1.0 | 4.0 | 0.00 | 0.00 | 0.00 | 64 | 1010.0 |
| 20260510193133 | 59 | 134 | 1.0 | 4.0 | 0.00 | 0.00 | 0.00 | 64 | 1009.8 |
| 20260510193107 | 59 | 137 | 0.0 | 4.0 | 0.00 | 0.00 | 0.00 | 63 | 1009.8 |
| 20260510193051 | 59 | 86 | 1.0 | 4.0 | 0.00 | 0.00 | 0.00 | 64 | 1009.8 |
| 20260510192731 | 59 | 132 | 0.0 | 4.0 | 0.00 | 0.00 | 0.00 | 64 | 1009.7 |
| 20260510192630 | 59 | 124 | 0.0 | 4.0 | 0.00 | 0.00 | 0.00 | 64 | 1010.0 |
| 20260510192531 | 59 | 58 | 2.0 | 4.0 | 0.00 | 0.00 | 0.00 | 63 | 1010.0 |
| 20260510192336 | 59 | 50 | 2.0 | 4.0 | 0.00 | 0.00 | 0.00 | 64 | 1009.7 |
| 20260510192324 | 59 | 101 | 1.0 | 3.0 | 0.00 | 0.00 | 0.00 | 63 | 1009.7 |
| 20260510192315 | 59 | 108 | 0.0 | 4.0 | 0.00 | 0.00 | 0.00 | 63 | 1009.9 |
| 20260510192300 | 59 | 124 | 0.0 | 4.0 | 0.00 | 0.00 | 0.00 | 63 | 1010.0 |
| 20260510192241 | 59 | 101 | 1.0 | 3.0 | 0.00 | 0.00 | 0.00 | 63 | 1009.7 |
| 20260510191931 | 59 | 97 | 0.0 | 3.0 | 0.00 | 0.00 | 0.00 | 63 | 1009.9 |
| 20260510191832 | 59 | 113 | 0.0 | 3.0 | 0.00 | 0.00 | 0.00 | 63 | 1009.7 |
| 20260510191813 | 59 | 68 | 0.0 | 3.0 | 0.00 | 0.00 | 0.00 | 63 | 1010.0 |
| 20260510191757 | 59 | 52 | 2.0 | 3.0 | 0.00 | 0.00 | 0.00 | 63 | 1009.9 |
| 20260510191531 | 59 | 108 | 0.0 | 3.0 | 0.00 | 0.00 | 0.00 | 63 | 1010.0 |
| 20260510191507 | 59 | 116 | 1.0 | 3.0 | 0.00 | 0.00 | 0.00 | 63 | 1009.9 |
| 20260510191450 | 60 | 74 | 2.0 | 3.0 | 0.00 | 0.00 | 0.00 | 63 | 1009.9 |
| 20260510191132 | 60 | 128 | 0.0 | 3.0 | 0.00 | 0.00 | 0.00 | 62 | 1009.9 |
| 20260510191032 | 60 | 138 | 0.0 | 3.0 | 0.00 | 0.00 | 0.00 | 62 | 1010.0 |
| 20260510190931 | 60 | 57 | 1.0 | 4.0 | 0.00 | 0.00 | 0.00 | 62 | 1010.0 |
| 20260510190833 | 60 | 112 | 0.0 | 4.0 | 0.00 | 0.00 | 0.00 | 62 | 1009.9 |
| 20260510190732 | 60 | 102 | 1.0 | 4.0 | 0.00 | 0.00 | 0.00 | 62 | 1009.9 |
| 20260510190632 | 60 | 98 | 0.0 | 4.0 | 0.00 | 0.00 | 0.00 | 62 | 1009.8 |
| 20260510190544 | 60 | 94 | 1.0 | 4.0 | 0.00 | 0.00 | 0.00 | 62 | 1009.8 |
| 20260510190433 | 60 | 66 | 1.0 | 6.0 | 0.00 | 0.00 | 0.00 | 62 | 1009.8 |
| 20260510190335 | 60 | 76 | 1.0 | 6.0 | 0.00 | 0.00 | 0.00 | 61 | 1010.2 |
| 20260510190319 | 60 | 71 | 1.0 | 6.0 | 0.00 | 0.00 | 0.00 | 61 | 1010.1 |
| 20260510190302 | 60 | 52 | 2.0 | 6.0 | 0.00 | 0.00 | 0.00 | 61 | 1009.7 |
| 20260510190033 | 60 | 29 | 2.0 | 6.0 | 0.00 | 0.00 | 0.00 | 61 | 1009.7 |
| 20260510185931 | 60 | 72 | 2.0 | 6.0 | 0.00 | 0.00 | 0.00 | 61 | 1009.9 |
| 20260510185831 | 60 | 130 | 1.0 | 6.0 | 0.00 | 0.00 | 0.00 | 61 | 1009.9 |
| 20260510185730 | 60 | 119 | 0.0 | 6.0 | 0.00 | 0.00 | 0.00 | 61 | 1009.9 |
| 20260510185631 | 60 | 60 | 2.0 | 6.0 | 0.00 | 0.00 | 0.00 | 61 | 1010.0 |
| 20260510185608 | 60 | 79 | 2.0 | 4.0 | 0.00 | 0.00 | 0.00 | 61 | 1009.8 |
| 20260510185553 | 60 | 112 | 0.0 | 4.0 | 0.00 | 0.00 | 0.00 | 61 | 1010.1 |
| 20260510185537 | 60 | 57 | 2.0 | 4.0 | 0.00 | 0.00 | 0.00 | 61 | 1010.2 |
| 20260510185301 | 61 | 71 | 1.0 | 4.0 | 0.00 | 0.00 | 0.00 | 61 | 1010.1 |
| 20260510185031 | 61 | 139 | 0.0 | 4.0 | 0.00 | 0.00 | 0.00 | 60 | 1010.0 |
| 20260510185008 | 61 | 67 | 2.0 | 4.0 | 0.00 | 0.00 | 0.00 | 60 | 1009.9 |
| 20260510184952 | 61 | 63 | 2.0 | 4.0 | 0.00 | 0.00 | 0.00 | 60 | 1010.0 |
| 20260510184631 | 61 | 123 | 1.0 | 4.0 | 0.00 | 0.00 | 0.00 | 60 | 1009.9 |
| 20260510184608 | 61 | 54 | 2.0 | 4.0 | 0.00 | 0.00 | 0.00 | 60 | 1009.8 |
| 20260510184551 | 61 | 91 | 1.0 | 3.0 | 0.00 | 0.00 | 0.00 | 60 | 1010.0 |
| 20260510184315 | 61 | 57 | 2.0 | 3.0 | 0.00 | 0.00 | 0.00 | 60 | 1009.9 |
| 20260510184259 | 61 | 90 | 1.0 | 3.0 | 0.00 | 0.00 | 0.00 | 60 | 1009.8 |
| 20260510184031 | 61 | 41 | 3.0 | 3.0 | 0.00 | 0.00 | 0.00 | 60 | 1009.9 |
| 20260510184005 | 61 | 53 | 1.0 | 3.0 | 0.00 | 0.00 | 0.00 | 60 | 1010.0 |
| 20260510183950 | 61 | 58 | 2.0 | 3.0 | 0.00 | 0.00 | 0.00 | 60 | 1009.8 |
| 20260510183934 | 61 | 63 | 1.0 | 3.0 | 0.00 | 0.00 | 0.00 | 60 | 1009.9 |
| 20260510183652 | 61 | 63 | 2.0 | 3.0 | 0.00 | 0.00 | 0.00 | 60 | 1009.9 |
| 20260510183331 | 61 | 103 | 1.0 | 3.0 | 0.00 | 0.00 | 0.00 | 60 | 1009.9 |
| 20260510183231 | 61 | 60 | 2.0 | 3.0 | 0.00 | 0.00 | 0.00 | 59 | 1009.8 |
| 20260510183131 | 61 | 117 | 2.0 | 3.0 | 0.00 | 0.00 | 0.00 | 59 | 1009.8 |
| 20260510183045 | 61 | 53 | 2.0 | 3.0 | 0.00 | 0.00 | 0.00 | 59 | 1009.9 |
| 20260510182931 | 61 | 45 | 1.0 | 3.0 | 0.00 | 0.00 | 0.00 | 59 | 1009.7 |
| 20260510182907 | 61 | 79 | 0.0 | 3.0 | 0.00 | 0.00 | 0.00 | 60 | 1010.0 |
| 20260510182851 | 61 | 84 | 1.0 | 3.0 | 0.00 | 0.00 | 0.00 | 59 | 1010.0 |
| 20260510182531 | 61 | 86 | 2.0 | 4.0 | 0.00 | 0.00 | 0.00 | 60 | 1009.9 |
| 20260510182431 | 61 | 102 | 1.0 | 4.0 | 0.00 | 0.00 | 0.00 | 60 | 1009.7 |
| 20260510182331 | 61 | 54 | 2.0 | 4.0 | 0.00 | 0.00 | 0.00 | 59 | 1009.8 |
| 20260510182232 | 62 | 45 | 1.0 | 4.0 | 0.00 | 0.00 | 0.00 | 60 | 1009.8 |
| 20260510182131 | 62 | 123 | 1.0 | 4.0 | 0.00 | 0.00 | 0.00 | 60 | 1009.9 |
| 20260510182033 | 62 | 118 | 2.0 | 4.0 | 0.00 | 0.00 | 0.00 | 59 | 1009.9 |
| 20260510181932 | 62 | 93 | 1.0 | 4.0 | 0.00 | 0.00 | 0.00 | 59 | 1009.7 |
| 20260510181915 | 62 | 120 | 0.0 | 4.0 | 0.00 | 0.00 | 0.00 | 59 | 1009.9 |
| 20260510181906 | 62 | 71 | 1.0 | 4.0 | 0.00 | 0.00 | 0.00 | 59 | 1009.8 |
| 20260510181849 | 62 | 72 | 1.0 | 4.0 | 0.00 | 0.00 | 0.00 | 59 | 1009.9 |
| 20260510181833 | 62 | 123 | 0.0 | 4.0 | 0.00 | 0.00 | 0.00 | 59 | 1009.8 |
| 20260510181816 | 62 | 120 | 0.0 | 4.0 | 0.00 | 0.00 | 0.00 | 59 | 1009.9 |
| 20260510181551 | 62 | 124 | 1.0 | 4.0 | 0.00 | 0.00 | 0.00 | 59 | 1009.7 |
| 20260510181231 | 62 | 102 | 0.0 | 4.0 | 0.00 | 0.00 | 0.00 | 59 | 1009.4 |
| 20260510181131 | 62 | 129 | 0.0 | 4.0 | 0.00 | 0.00 | 0.00 | 58 | 1010.0 |
| 20260510181032 | 62 | 59 | 1.0 | 4.0 | 0.00 | 0.00 | 0.00 | 58 | 1009.8 |
| 20260510180931 | 62 | 75 | 1.0 | 4.0 | 0.00 | 0.00 | 0.00 | 58 | 1009.7 |
| 20260510180831 | 62 | 74 | 1.0 | 4.0 | 0.00 | 0.00 | 0.00 | 58 | 1009.8 |
| 20260510180732 | 62 | 123 | 0.0 | 4.0 | 0.00 | 0.00 | 0.00 | 58 | 1009.7 |
| 20260510180718 | 63 | 98 | 1.0 | 3.0 | 0.00 | 0.00 | 0.00 | 57 | 1009.8 |
| 20260510180708 | 62 | 71 | 1.0 | 4.0 | 0.00 | 0.00 | 0.00 | 58 | 1009.9 |
| 20260510180645 | 62 | 109 | 1.0 | 3.0 | 0.00 | 0.00 | 0.00 | 58 | 1009.6 |
| 20260510180629 | 62 | 79 | 0.0 | 3.0 | 0.00 | 0.00 | 0.00 | 58 | 1009.6 |
| 20260510180614 | 63 | 116 | 1.0 | 3.0 | 0.00 | 0.00 | 0.00 | 57 | 1009.8 |
| 20260510180558 | 63 | 61 | 3.0 | 3.0 | 0.00 | 0.00 | 0.00 | 57 | 1009.9 |
| 20260510180543 | 63 | 82 | 1.0 | 3.0 | 0.00 | 0.00 | 0.00 | 57 | 1009.7 |
| 20260510180523 | 63 | 98 | 1.0 | 3.0 | 0.00 | 0.00 | 0.00 | 57 | 1009.8 |
| 20260510175812 | 63 | 82 | 1.0 | 3.0 | 0.00 | 0.00 | 0.00 | 56 | 1009.8 |
| 20260510175757 | 63 | 150 | 0.0 | 3.0 | 0.00 | 0.00 | 0.00 | 56 | 1009.9 |
| 20260510175530 | 63 | 55 | 1.0 | 2.0 | 0.00 | 0.00 | 0.00 | 56 | 1010.0 |
| 20260510175432 | 63 | 54 | 1.0 | 2.0 | 0.00 | 0.00 | 0.00 | 56 | 1009.7 |
| 20260510175408 | 63 | 74 | 1.0 | 2.0 | 0.00 | 0.00 | 0.00 | 56 | 1009.7 |
| 20260510175351 | 63 | 140 | 0.0 | 2.0 | 0.00 | 0.00 | 0.00 | 55 | 1009.8 |
| 20260510175032 | 64 | 122 | 0.0 | 2.0 | 0.00 | 0.00 | 0.00 | 55 | 1009.9 |
| 20260510174931 | 64 | 65 | 1.0 | 2.0 | 0.00 | 0.00 | 0.00 | 55 | 1009.8 |
| 20260510174823 | 64 | 111 | 0.0 | 3.0 | 0.00 | 0.00 | 0.00 | 54 | 1010.0 |
| 20260510174813 | 64 | 77 | 1.0 | 2.0 | 0.00 | 0.00 | 0.00 | 55 | 1010.0 |
| 20260510174758 | 64 | 80 | 1.0 | 3.0 | 0.00 | 0.00 | 0.00 | 55 | 1009.9 |
| 20260510174741 | 64 | 111 | 0.0 | 3.0 | 0.00 | 0.00 | 0.00 | 54 | 1010.0 |
| 20260510174431 | 64 | 123 | 0.0 | 3.0 | 0.00 | 0.00 | 0.00 | 54 | 1009.7 |
| 20260510174331 | 64 | 122 | 1.0 | 3.0 | 0.00 | 0.00 | 0.00 | 54 | 1009.9 |
| 20260510174231 | 64 | 77 | 1.0 | 3.0 | 0.00 | 0.00 | 0.00 | 54 | 1009.8 |
| 20260510174213 | 64 | 62 | 2.0 | 3.0 | 0.00 | 0.00 | 0.00 | 54 | 1009.8 |
| 20260510174149 | 64 | 70 | 2.0 | 3.0 | 0.00 | 0.00 | 0.00 | 54 | 1009.7 |
| 20260510174132 | 64 | 61 | 0.0 | 4.0 | 0.00 | 0.00 | 0.00 | 54 | 1009.7 |
| 20260510173850 | 64 | 130 | 0.0 | 4.0 | 0.00 | 0.00 | 0.00 | 53 | 1009.8 |
| 20260510173431 | 65 | 90 | 1.0 | 6.0 | 0.00 | 0.00 | 0.00 | 52 | 1009.8 |
| 20260510173332 | 65 | 64 | 0.0 | 6.0 | 0.00 | 0.00 | 0.00 | 53 | 1009.8 |
| 20260510173231 | 65 | 107 | 1.0 | 6.0 | 0.00 | 0.00 | 0.00 | 52 | 1009.7 |
| 20260510173132 | 65 | 121 | 2.0 | 7.0 | 0.00 | 0.00 | 0.00 | 51 | 1009.7 |
| 20260510173109 | 65 | 55 | 2.0 | 7.0 | 0.00 | 0.00 | 0.00 | 51 | 1009.8 |
| 20260510173051 | 65 | 48 | 3.0 | 7.0 | 0.00 | 0.00 | 0.00 | 51 | 1009.8 |
| 20260510172732 | 65 | 62 | 2.0 | 7.0 | 0.00 | 0.00 | 0.00 | 51 | 1009.9 |
| 20260510172715 | 65 | 71 | 2.0 | 7.0 | 0.00 | 0.00 | 0.00 | 51 | 1009.9 |
| 20260510172653 | 65 | 76 | 1.0 | 7.0 | 0.00 | 0.00 | 0.00 | 51 | 1009.9 |
| 20260510172351 | 65 | 119 | 0.0 | 6.0 | 0.00 | 0.00 | 0.00 | 50 | 1009.7 |
| 20260510172345 | 65 | 89 | 0.0 | 7.0 | 0.00 | 0.00 | 0.00 | 51 | 1009.9 |
| 20260510172329 | 65 | 97 | 2.0 | 7.0 | 0.00 | 0.00 | 0.00 | 50 | 1009.7 |
| 20260510172314 | 65 | 96 | 0.0 | 6.0 | 0.00 | 0.00 | 0.00 | 50 | 1009.8 |
| 20260510172255 | 65 | 119 | 0.0 | 6.0 | 0.00 | 0.00 | 0.00 | 50 | 1009.7 |
| 20260510171931 | 66 | 66 | 1.0 | 6.0 | 0.00 | 0.00 | 0.00 | 50 | 1009.7 |
| 20260510171832 | 66 | 5 | 2.0 | 6.0 | 0.00 | 0.00 | 0.00 | 49 | 1009.7 |
| 20260510171732 | 66 | 57 | 3.0 | 6.0 | 0.00 | 0.00 | 0.00 | 49 | 1009.6 |
| 20260510171632 | 66 | 81 | 1.0 | 4.0 | 0.00 | 0.00 | 0.00 | 49 | 1009.9 |
| 20260510171545 | 66 | 57 | 1.0 | 4.0 | 0.00 | 0.00 | 0.00 | 49 | 1009.6 |
| 20260510171431 | 66 | 72 | 1.0 | 4.0 | 0.00 | 0.00 | 0.00 | 49 | 1009.7 |
| 20260510171331 | 66 | 89 | 1.0 | 4.0 | 0.00 | 0.00 | 0.00 | 49 | 1009.8 |
| 20260510171231 | 66 | 61 | 3.0 | 4.0 | 0.00 | 0.00 | 0.00 | 49 | 1009.7 |
| 20260510171131 | 66 | 111 | 1.0 | 3.0 | 0.00 | 0.00 | 0.00 | 49 | 1009.7 |
| 20260510171031 | 66 | 59 | 2.0 | 3.0 | 0.00 | 0.00 | 0.00 | 49 | 1009.8 |
| 20260510171007 | 66 | 68 | 2.0 | 3.0 | 0.00 | 0.00 | 0.00 | 48 | 1009.8 |
| 20260510170951 | 66 | 98 | 1.0 | 3.0 | 0.00 | 0.00 | 0.00 | 48 | 1009.8 |
| 20260510170631 | 66 | 68 | 2.0 | 3.0 | 0.00 | 0.00 | 0.00 | 49 | 1009.8 |
| 20260510170531 | 66 | 90 | 1.0 | 3.0 | 0.00 | 0.00 | 0.00 | 49 | 1009.9 |
| 20260510170431 | 66 | 86 | 2.0 | 3.0 | 0.00 | 0.00 | 0.00 | 48 | 1009.9 |
| 20260510170331 | 66 | 64 | 2.0 | 4.0 | 0.00 | 0.00 | 0.00 | 49 | 1009.9 |
| 20260510170230 | 66 | 133 | 0.0 | 4.0 | 0.00 | 0.00 | 0.00 | 48 | 1009.9 |
| 20260510170131 | 66 | 178 | 0.0 | 4.0 | 0.00 | 0.00 | 0.00 | 48 | 1009.7 |
| 20260510170037 | 66 | 178 | 0.0 | 4.0 | 0.00 | 0.00 | 0.00 | 48 | 1009.9 |
| 20260510165932 | 66 | 135 | 1.0 | 4.0 | 0.00 | 0.00 | 0.00 | 48 | 1009.9 |
| 20260510165831 | 66 | 148 | 0.0 | 4.0 | 0.00 | 0.00 | 0.00 | 48 | 1010.0 |
| 20260510165732 | 66 | 134 | 0.0 | 4.0 | 0.00 | 0.00 | 0.00 | 47 | 1010.1 |
| 20260510165632 | 66 | 90 | 1.0 | 4.0 | 0.00 | 0.00 | 0.00 | 47 | 1009.9 |
| 20260510165531 | 66 | 120 | 1.0 | 4.0 | 0.00 | 0.00 | 0.00 | 47 | 1009.8 |
| 20260510165432 | 66 | 81 | 2.0 | 4.0 | 0.00 | 0.00 | 0.00 | 48 | 1009.9 |
| 20260510165407 | 66 | 72 | 1.0 | 2.0 | 0.00 | 0.00 | 0.00 | 48 | 1010.0 |
| 20260510165352 | 66 | 73 | 1.0 | 2.0 | 0.00 | 0.00 | 0.00 | 48 | 1010.0 |
| 20260510165030 | 66 | 160 | 0.0 | 0.0 | 0.00 | 0.00 | 0.00 | 48 | 1010.1 |
| 20260510164533 | 67 | 119 | 1.0 | 3.0 | 0.00 | 0.00 | 0.00 | 48 | 1010.1 |
| 20260510164514 | 67 | 116 | 0.0 | 3.0 | 0.00 | 0.00 | 0.00 | 48 | 1010.1 |
| 20260510164413 | 67 | 109 | 1.0 | 3.0 | 0.00 | 0.00 | 0.00 | 47 | 1010.1 |
| 20260510164334 | 67 | 166 | 0.0 | 3.0 | 0.00 | 0.00 | 0.00 | 47 | 1010.2 |
| 20260510164327 | 67 | 122 | 1.0 | 3.0 | 0.00 | 0.00 | 0.00 | 47 | 1009.9 |
| 20260510164311 | 67 | 102 | 1.0 | 3.0 | 0.00 | 0.00 | 0.00 | 47 | 1010.0 |
| 20260510164254 | 67 | 172 | 0.0 | 3.0 | 0.00 | 0.00 | 0.00 | 47 | 1010.2 |
| 20260510164013 | 67 | 164 | 0.0 | 3.0 | 0.00 | 0.00 | 0.00 | 47 | 1010.1 |
| 20260510163914 | 67 | 177 | 0.0 | 3.0 | 0.00 | 0.00 | 0.00 | 46 | 1010.1 |
| 20260510163813 | 67 | 39 | 1.0 | 3.0 | 0.00 | 0.00 | 0.00 | 46 | 1010.1 |
| 20260510163712 | 67 | 37 | 3.0 | 3.0 | 0.00 | 0.00 | 0.00 | 46 | 1010.2 |
| 20260510163657 | 67 | 63 | 2.0 | 3.0 | 0.00 | 0.00 | 0.00 | 46 | 1010.0 |
| 20260510163641 | 67 | 148 | 0.0 | 2.0 | 0.00 | 0.00 | 0.00 | 46 | 1010.0 |
| 20260510163634 | 67 | 148 | 0.0 | 2.0 | 0.00 | 0.00 | 0.00 | 47 | 1010.1 |
| 20260510163313 | 67 | 148 | 0.0 | 2.0 | 0.00 | 0.00 | 0.00 | 47 | 1010.2 |
| 20260510163214 | 67 | 145 | 1.0 | 2.0 | 0.00 | 0.00 | 0.00 | 46 | 1010.1 |
| 20260510163149 | 67 | 82 | 2.0 | 2.0 | 0.00 | 0.00 | 0.00 | 47 | 1010.1 |
| 20260510163140 | 67 | 166 | 0.0 | 2.0 | 0.00 | 0.00 | 0.00 | 46 | 1010.5 |
| 20260510163123 | 67 | 166 | 0.0 | 2.0 | 0.00 | 0.00 | 0.00 | 46 | 1010.5 |
| 20260510163115 | 67 | 164 | 0.0 | 2.0 | 0.00 | 0.00 | 0.00 | 47 | 1010.2 |
| 20260510163059 | 67 | 138 | 0.0 | 2.0 | 0.00 | 0.00 | 0.00 | 47 | 1010.1 |
| 20260510162824 | 67 | 73 | 1.0 | 2.0 | 0.00 | 0.00 | 0.00 | 46 | 1010.1 |
| 20260510162809 | 67 | 128 | 1.0 | 2.0 | 0.00 | 0.00 | 0.00 | 47 | 1010.1 |
| 20260510162542 | 67 | 58 | 1.0 | 2.0 | 0.00 | 0.00 | 0.00 | 48 | 1010.4 |
| 20260510162527 | 67 | 130 | 2.0 | 2.0 | 0.00 | 0.00 | 0.00 | 46 | 1010.2 |
| 20260510162511 | 67 | 130 | 0.0 | 2.0 | 0.00 | 0.00 | 0.00 | 46 | 1010.6 |
| 20260510162455 | 67 | 124 | 0.0 | 3.0 | 0.00 | 0.00 | 0.00 | 47 | 1010.4 |
| 20260510162440 | 67 | 109 | 1.0 | 3.0 | 0.00 | 0.00 | 0.00 | 46 | 1010.1 |
| 20260510162422 | 67 | 145 | 0.0 | 3.0 | 0.00 | 0.00 | 0.00 | 47 | 1010.1 |
| 20260510161934 | 67 | 140 | 0.0 | 3.0 | 0.00 | 0.00 | 0.00 | 46 | 1010.4 |
| 20260510161917 | 67 | 123 | 0.0 | 3.0 | 0.00 | 0.00 | 0.00 | 46 | 1010.4 |
| 20260510161642 | 67 | 163 | 0.0 | 3.0 | 0.00 | 0.00 | 0.00 | 46 | 1010.5 |
| 20260510161634 | 67 | 73 | 1.0 | 3.0 | 0.00 | 0.00 | 0.00 | 46 | 1010.5 |
| 20260510161312 | 67 | 56 | 2.0 | 3.0 | 0.00 | 0.00 | 0.00 | 47 | 1010.5 |
| 20260510161213 | 67 | 89 | 1.0 | 2.0 | 0.00 | 0.00 | 0.00 | 48 | 1010.2 |
| 20260510161113 | 67 | 174 | 0.0 | 2.0 | 0.00 | 0.00 | 0.00 | 48 | 1010.2 |
| 20260510161033 | 67 | 181 | 0.0 | 2.0 | 0.00 | 0.00 | 0.00 | 47 | 1010.2 |
| 20260510161013 | 67 | 183 | 0.0 | 2.0 | 0.00 | 0.00 | 0.00 | 47 | 1010.6 |
| 20260510160912 | 67 | 158 | 0.0 | 2.0 | 0.00 | 0.00 | 0.00 | 46 | 1010.2 |
| 20260510160813 | 67 | 105 | 2.0 | 3.0 | 0.00 | 0.00 | 0.00 | 47 | 1010.5 |
| 20260510160713 | 67 | 66 | 1.0 | 3.0 | 0.00 | 0.00 | 0.00 | 47 | 1010.5 |
| 20260510160613 | 67 | 163 | 0.0 | 3.0 | 0.00 | 0.00 | 0.00 | 47 | 1010.5 |
| 20260510160533 | 67 | 99 | 0.0 | 3.0 | 0.00 | 0.00 | 0.00 | 46 | 1010.5 |
| 20260510160513 | 67 | 99 | 0.0 | 3.0 | 0.00 | 0.00 | 0.00 | 46 | 1010.6 |
| 20260510160414 | 67 | 139 | 0.0 | 3.0 | 0.00 | 0.00 | 0.00 | 46 | 1010.2 |
| 20260510160322 | 68 | 176 | 0.0 | 4.0 | 0.00 | 0.00 | 0.00 | 45 | 1010.9 |
| 20260510160315 | 67 | 140 | 0.0 | 3.0 | 0.00 | 0.00 | 0.00 | 45 | 1010.6 |
| 20260510160304 | 68 | 171 | 0.0 | 3.0 | 0.00 | 0.00 | 0.00 | 45 | 1010.8 |
| 20260510160255 | 67 | 150 | 0.0 | 3.0 | 0.00 | 0.00 | 0.00 | 46 | 1010.4 |
| 20260510160240 | 67 | 128 | 1.0 | 3.0 | 0.00 | 0.00 | 0.00 | 46 | 1010.6 |
| 20260510160223 | 67 | 118 | 1.0 | 3.0 | 0.00 | 0.00 | 0.00 | 47 | 1010.6 |
| 20260510160216 | 67 | 114 | 1.0 | 3.0 | 0.00 | 0.00 | 0.00 | 47 | 1010.4 |
| 20260510160200 | 67 | 123 | 0.0 | 3.0 | 0.00 | 0.00 | 0.00 | 48 | 1010.6 |
| 20260510155924 | 67 | 162 | 0.0 | 3.0 | 0.00 | 0.00 | 0.00 | 47 | 1010.6 |
| 20260510155650 | 67 | 73 | 1.0 | 3.0 | 0.00 | 0.00 | 0.00 | 46 | 1010.6 |
| 20260510155642 | 67 | 56 | 2.0 | 3.0 | 0.00 | 0.00 | 0.00 | 46 | 1010.7 |
| 20260510155418 | 67 | 169 | 0.0 | 2.0 | 0.00 | 0.00 | 0.00 | 46 | 1010.7 |
| 20260510155401 | 67 | 149 | 0.0 | 2.0 | 0.00 | 0.00 | 0.00 | 46 | 1010.9 |
| 20260510155346 | 68 | 66 | 2.0 | 3.0 | 0.00 | 0.00 | 0.00 | 46 | 1010.9 |
| 20260510155330 | 68 | 169 | 0.0 | 3.0 | 0.00 | 0.00 | 0.00 | 46 | 1010.8 |
| 20260510155101 | 68 | 186 | 0.0 | 3.0 | 0.00 | 0.00 | 0.00 | 46 | 1010.7 |
| 20260510155044 | 68 | 184 | 0.0 | 3.0 | 0.00 | 0.00 | 0.00 | 45 | 1010.5 |
| 20260510154806 | 68 | 186 | 0.0 | 3.0 | 0.00 | 0.00 | 0.00 | 45 | 1010.7 |
| 20260510154751 | 68 | 142 | 0.0 | 4.0 | 0.00 | 0.00 | 0.00 | 45 | 1010.9 |
| 20260510154514 | 68 | 176 | 0.0 | 4.0 | 0.00 | 0.00 | 0.00 | 45 | 1010.5 |
| 20260510154449 | 67 | 178 | 0.0 | 4.0 | 0.00 | 0.00 | 0.00 | 46 | 1010.7 |
| 20260510154435 | 67 | 202 | 1.0 | 4.0 | 0.00 | 0.00 | 0.00 | 45 | 1010.7 |
| 20260510154113 | 67 | 130 | 0.0 | 4.0 | 0.00 | 0.00 | 0.00 | 45 | 1010.7 |
| 20260510154033 | 67 | 131 | 1.0 | 4.0 | 0.00 | 0.00 | 0.00 | 44 | 1010.7 |
| 20260510154014 | 68 | 61 | 2.0 | 4.0 | 0.00 | 0.00 | 0.00 | 44 | 1010.7 |
| 20260510153914 | 68 | 124 | 1.0 | 4.0 | 0.00 | 0.00 | 0.00 | 45 | 1010.9 |
| 20260510153813 | 68 | 177 | 0.0 | 4.0 | 0.00 | 0.00 | 0.00 | 46 | 1010.6 |
| 20260510153714 | 67 | 201 | 0.0 | 4.0 | 0.00 | 0.00 | 0.00 | 45 | 1010.7 |
| 20260510153629 | 68 | 190 | 0.0 | 4.0 | 0.00 | 0.00 | 0.00 | 45 | 1010.9 |
| 20260510153624 | 67 | 190 | 1.0 | 4.0 | 0.00 | 0.00 | 0.00 | 44 | 1010.7 |
| 20260510153609 | 67 | 169 | 0.0 | 4.0 | 0.00 | 0.00 | 0.00 | 45 | 1010.7 |
| 20260510153602 | 67 | 187 | 0.0 | 4.0 | 0.00 | 0.00 | 0.00 | 45 | 1010.7 |
| 20260510153546 | 67 | 75 | 1.0 | 4.0 | 0.00 | 0.00 | 0.00 | 45 | 1010.8 |
| 20260510153531 | 68 | 139 | 0.0 | 4.0 | 0.00 | 0.00 | 0.00 | 44 | 1010.9 |
| 20260510153515 | 68 | 158 | 0.0 | 4.0 | 0.00 | 0.00 | 0.00 | 45 | 1010.7 |
| 20260510153013 | 68 | 187 | 0.0 | 4.0 | 0.00 | 0.00 | 0.00 | 44 | 1010.9 |
| 20260510152918 | 68 | 221 | 2.0 | 4.0 | 0.00 | 0.00 | 0.00 | 44 | 1011.0 |
| 20260510152813 | 68 | 204 | 3.0 | 4.0 | 0.00 | 0.00 | 0.00 | 44 | 1010.9 |
| 20260510152714 | 68 | 182 | 0.0 | 2.0 | 0.00 | 0.00 | 0.00 | 48 | 1010.9 |
| 20260510152648 | 68 | 196 | 0.0 | 2.0 | 0.00 | 0.00 | 0.00 | 45 | 1011.1 |
| 20260510152633 | 68 | 116 | 0.0 | 2.0 | 0.00 | 0.00 | 0.00 | 45 | 1011.1 |
| 20260510152625 | 68 | 125 | 0.0 | 2.0 | 0.00 | 0.00 | 0.00 | 45 | 1010.9 |
| 20260510152608 | 68 | 172 | 0.0 | 3.0 | 0.00 | 0.00 | 0.00 | 45 | 1010.9 |
| 20260510152332 | 67 | 152 | 0.0 | 3.0 | 0.00 | 0.00 | 0.00 | 45 | 1011.0 |
| 20260510152033 | 67 | 125 | 0.0 | 3.0 | 0.00 | 0.00 | 0.00 | 45 | 1011.1 |
| 20260510152013 | 67 | 185 | 0.0 | 3.0 | 0.00 | 0.00 | 0.00 | 45 | 1010.9 |
| 20260510151948 | 67 | 210 | 1.0 | 4.0 | 0.00 | 0.00 | 0.00 | 46 | 1011.0 |
| 20260510151933 | 67 | 77 | 1.0 | 4.0 | 0.00 | 0.00 | 0.00 | 46 | 1010.9 |
| 20260510151613 | 67 | 107 | 0.0 | 4.0 | 0.00 | 0.00 | 0.00 | 47 | 1010.9 |
| 20260510151534 | 67 | 131 | 1.0 | 4.0 | 0.00 | 0.00 | 0.00 | 46 | 1010.9 |
| 20260510151513 | 67 | 54 | 3.0 | 4.0 | 0.00 | 0.00 | 0.00 | 46 | 1011.2 |
| 20260510151502 | 68 | 61 | 2.0 | 6.0 | 0.00 | 0.00 | 0.00 | 46 | 1011.3 |
| 20260510151453 | 67 | 92 | 2.0 | 4.0 | 0.00 | 0.00 | 0.00 | 47 | 1011.1 |
| 20260510151436 | 67 | 144 | 0.0 | 4.0 | 0.00 | 0.00 | 0.00 | 47 | 1011.2 |
| 20260510151420 | 67 | 135 | 1.0 | 4.0 | 0.00 | 0.00 | 0.00 | 46 | 1011.2 |
| 20260510151135 | 67 | 129 | 1.0 | 4.0 | 0.00 | 0.00 | 0.00 | 46 | 1011.2 |
| 20260510150859 | 67 | 146 | 0.0 | 6.0 | 0.00 | 0.00 | 0.00 | 46 | 1011.1 |
| 20260510150843 | 67 | 179 | 0.0 | 6.0 | 0.00 | 0.00 | 0.00 | 46 | 1011.3 |
| 20260510150827 | 67 | 174 | 0.0 | 6.0 | 0.00 | 0.00 | 0.00 | 46 | 1011.2 |
| 20260510150813 | 67 | 176 | 0.0 | 6.0 | 0.00 | 0.00 | 0.00 | 46 | 1011.2 |
| 20260510150805 | 67 | 172 | 0.0 | 6.0 | 0.00 | 0.00 | 0.00 | 46 | 1011.1 |
| 20260510150750 | 67 | 137 | 0.0 | 6.0 | 0.00 | 0.00 | 0.00 | 46 | 1011.3 |
| 20260510150254 | 68 | 72 | 1.0 | 6.0 | 0.00 | 0.00 | 0.00 | 46 | 1011.3 |
| 20260510150013 | 68 | 43 | 2.0 | 6.0 | 0.00 | 0.00 | 0.00 | 46 | 1011.1 |
| 20260510145915 | 68 | 53 | 1.0 | 3.0 | 0.00 | 0.00 | 0.00 | 46 | 1011.2 |
| 20260510145825 | 67 | 147 | 0.0 | 6.0 | 0.00 | 0.00 | 0.00 | 46 | 1011.2 |
| 20260510145809 | 67 | 73 | 1.0 | 6.0 | 0.00 | 0.00 | 0.00 | 47 | 1011.2 |
| 20260510145755 | 67 | 114 | 1.0 | 6.0 | 0.00 | 0.00 | 0.00 | 47 | 1011.2 |
| 20260510145514 | 67 | 154 | 0.0 | 6.0 | 0.00 | 0.00 | 0.00 | 46 | 1011.2 |
| 20260510145414 | 67 | 192 | 0.0 | 6.0 | 0.00 | 0.00 | 0.00 | 45 | 1011.2 |
| 20260510145351 | 67 | 186 | 0.0 | 6.0 | 0.00 | 0.00 | 0.00 | 46 | 1011.3 |
| 20260510145334 | 67 | 199 | 2.0 | 6.0 | 0.00 | 0.00 | 0.00 | 45 | 1011.3 |
| 20260510145318 | 67 | 178 | 0.0 | 6.0 | 0.00 | 0.00 | 0.00 | 46 | 1011.4 |
| 20260510145305 | 67 | 160 | 0.0 | 6.0 | 0.00 | 0.00 | 0.00 | 46 | 1011.4 |
| 20260510145034 | 67 | 110 | 1.0 | 6.0 | 0.00 | 0.00 | 0.00 | 46 | 1011.4 |
| 20260510144713 | 67 | 65 | 4.0 | 6.0 | 0.00 | 0.00 | 0.00 | 46 | 1011.5 |
| 20260510144657 | 67 | 71 | 2.0 | 6.0 | 0.00 | 0.00 | 0.00 | 46 | 1011.4 |
| 20260510144643 | 67 | 71 | 1.0 | 6.0 | 0.00 | 0.00 | 0.00 | 47 | 1011.4 |
| 20260510144634 | 67 | 120 | 2.0 | 6.0 | 0.00 | 0.00 | 0.00 | 46 | 1011.1 |
| 20260510144331 | 67 | 179 | 0.0 | 2.0 | 0.00 | 0.00 | 0.00 | 48 | 1011.4 |
| 20260510144325 | 67 | 131 | 1.0 | 2.0 | 0.00 | 0.00 | 0.00 | 46 | 1011.2 |
| 20260510144309 | 67 | 69 | 1.0 | 2.0 | 0.00 | 0.00 | 0.00 | 47 | 1011.4 |
| 20260510144254 | 67 | 176 | 0.0 | 2.0 | 0.00 | 0.00 | 0.00 | 49 | 1011.4 |
| 20260510144013 | 67 | 179 | 0.0 | 3.0 | 0.00 | 0.00 | 0.00 | 48 | 1011.3 |
| 20260510143913 | 67 | 172 | 0.0 | 3.0 | 0.00 | 0.00 | 0.00 | 47 | 1011.2 |
| 20260510143837 | 67 | 157 | 0.0 | 7.0 | 0.00 | 0.00 | 0.00 | 46 | 1012.0 |
| 20260510143829 | 67 | 78 | 0.0 | 3.0 | 0.00 | 0.00 | 0.00 | 47 | 1011.6 |
| 20260510143825 | 67 | 93 | 1.0 | 7.0 | 0.00 | 0.00 | 0.00 | 46 | 1012.1 |
| 20260510143818 | 67 | 152 | 0.0 | 3.0 | 0.00 | 0.00 | 0.00 | 47 | 1011.4 |
| 20260510143802 | 67 | 179 | 0.0 | 3.0 | 0.00 | 0.00 | 0.00 | 47 | 1011.2 |
| 20260510143747 | 67 | 172 | 0.0 | 4.0 | 0.00 | 0.00 | 0.00 | 47 | 1011.1 |
| 20260510143732 | 67 | 117 | 1.0 | 4.0 | 0.00 | 0.00 | 0.00 | 46 | 1011.1 |
| 20260510143725 | 67 | 136 | 0.0 | 4.0 | 0.00 | 0.00 | 0.00 | 47 | 1011.2 |
| 20260510143448 | 67 | 69 | 2.0 | 6.0 | 0.00 | 0.00 | 0.00 | 46 | 1011.5 |
| 20260510143224 | 67 | 71 | 1.0 | 6.0 | 0.00 | 0.00 | 0.00 | 46 | 1011.6 |
| 20260510143208 | 67 | 82 | 2.0 | 6.0 | 0.00 | 0.00 | 0.00 | 46 | 1011.5 |
| 20260510143153 | 67 | 62 | 3.0 | 6.0 | 0.00 | 0.00 | 0.00 | 46 | 1011.5 |
| 20260510143146 | 67 | 49 | 2.0 | 6.0 | 0.00 | 0.00 | 0.00 | 46 | 1011.4 |
| 20260510143131 | 67 | 65 | 2.0 | 6.0 | 0.00 | 0.00 | 0.00 | 47 | 1011.5 |
| 20260510143113 | 67 | 80 | 2.0 | 6.0 | 0.00 | 0.00 | 0.00 | 47 | 1011.5 |
| 20260510142835 | 67 | 96 | 0.0 | 6.0 | 0.00 | 0.00 | 0.00 | 47 | 1011.5 |
| 20260510142820 | 67 | 67 | 3.0 | 6.0 | 0.00 | 0.00 | 0.00 | 46 | 1011.5 |
| 20260510142551 | 67 | 69 | 1.0 | 3.0 | 0.00 | 0.00 | 0.00 | 47 | 1011.5 |
| 20260510142519 | 67 | 80 | 2.0 | 3.0 | 0.00 | 0.00 | 0.00 | 47 | 1011.6 |
| 20260510142500 | 67 | 82 | 1.0 | 3.0 | 0.00 | 0.00 | 0.00 | 47 | 1011.6 |
| 20260510142422 | 67 | 195 | 0.0 | 3.0 | 0.00 | 0.00 | 0.00 | 47 | 1011.7 |
| 20260510142142 | 67 | 99 | 0.0 | 3.0 | 0.00 | 0.00 | 0.00 | 47 | 1011.8 |
| 20260510141907 | 67 | 92 | 1.0 | 3.0 | 0.00 | 0.00 | 0.00 | 46 | 1011.8 |
| 20260510141900 | 67 | 88 | 1.0 | 3.0 | 0.00 | 0.00 | 0.00 | 46 | 1011.9 |
| 20260510141839 | 67 | 139 | 1.0 | 3.0 | 0.00 | 0.00 | 0.00 | 46 | 1011.8 |
| 20260510141553 | 67 | 152 | 0.0 | 3.0 | 0.00 | 0.00 | 0.00 | 47 | 1012.0 |
| 20260510141049 | 66 | 140 | 0.0 | 7.0 | 0.00 | 0.00 | 0.00 | 46 | 1012.0 |
| 20260510140807 | 67 | 114 | 0.0 | 7.0 | 0.00 | 0.00 | 0.00 | 46 | 1012.0 |
| 20260510140751 | 67 | 99 | 0.0 | 7.0 | 0.00 | 0.00 | 0.00 | 46 | 1012.0 |
| 20260510140513 | 67 | 176 | 0.0 | 7.0 | 0.00 | 0.00 | 0.00 | 46 | 1011.8 |
| 20260510140436 | 67 | 207 | 1.0 | 3.0 | 0.00 | 0.00 | 0.00 | 46 | 1012.1 |
| 20260510140432 | 67 | 106 | 0.0 | 3.0 | 0.00 | 0.00 | 0.00 | 47 | 1011.9 |
| 20260510140427 | 67 | 190 | 0.0 | 7.0 | 0.00 | 0.00 | 0.00 | 46 | 1011.9 |
| 20260510140413 | 67 | 207 | 3.0 | 7.0 | 0.00 | 0.00 | 0.00 | 46 | 1011.9 |
| 20260510140333 | 67 | 213 | 5.0 | 6.0 | 0.00 | 0.00 | 0.00 | 47 | 1012.1 |
| 20260510140100 | 67 | 181 | 0.0 | 3.0 | 0.00 | 0.00 | 0.00 | 46 | 1012.1 |
| 20260510140045 | 67 | 167 | 2.0 | 3.0 | 0.00 | 0.00 | 0.00 | 46 | 1011.8 |
| 20260510135810 | 67 | 191 | 0.0 | 3.0 | 0.00 | 0.00 | 0.00 | 46 | 1012.1 |
| 20260510135501 | 67 | 149 | 0.0 | 3.0 | 0.00 | 0.00 | 0.00 | 49 | 1011.7 |
| 20260510135406 | 67 | 147 | 0.0 | 3.0 | 0.00 | 0.00 | 0.00 | 50 | 1011.9 |
| 20260510135300 | 67 | 170 | 0.0 | 3.0 | 0.00 | 0.00 | 0.00 | 48 | 1012.0 |
| 20260510135204 | 67 | 67 | 2.0 | 6.0 | 0.00 | 0.00 | 0.00 | 48 | 1012.0 |
| 20260510135119 | 67 | 62 | 1.0 | 6.0 | 0.00 | 0.00 | 0.00 | 48 | 1012.0 |
| 20260510135031 | 67 | 81 | 2.0 | 6.0 | 0.00 | 0.00 | 0.00 | 47 | 1012.0 |
| 20260510135000 | 67 | 129 | 1.0 | 6.0 | 0.00 | 0.00 | 0.00 | 47 | 1011.9 |
| 20260510134900 | 67 | 49 | 1.0 | 6.0 | 0.00 | 0.00 | 0.00 | 48 | 1012.0 |
| 20260510134831 | 66 | 73 | 2.0 | 6.0 | 0.00 | 0.00 | 0.00 | 48 | 1012.0 |
| 20260510134823 | 67 | 53 | 2.0 | 6.0 | 0.00 | 0.00 | 0.00 | 48 | 1012.3 |
| 20260510134807 | 67 | 168 | 0.0 | 6.0 | 0.00 | 0.00 | 0.00 | 47 | 1012.1 |
| 20260510134751 | 67 | 119 | 1.0 | 6.0 | 0.00 | 0.00 | 0.00 | 47 | 1012.0 |
| 20260510134512 | 67 | 130 | 0.0 | 4.0 | 0.00 | 0.00 | 0.00 | 48 | 1012.1 |
| 20260510134507 | 66 | 155 | 0.0 | 6.0 | 0.00 | 0.00 | 0.00 | 48 | 1011.9 |
| 20260510134405 | 66 | 63 | 2.0 | 6.0 | 0.00 | 0.00 | 0.00 | 48 | 1012.1 |
| 20260510134337 | 67 | 55 | 3.0 | 6.0 | 0.00 | 0.00 | 0.00 | 47 | 1012.1 |
| 20260510134314 | 67 | 132 | 0.0 | 4.0 | 0.00 | 0.00 | 0.00 | 47 | 1012.1 |
| 20260510134259 | 67 | 41 | 2.0 | 4.0 | 0.00 | 0.00 | 0.00 | 46 | 1012.1 |
| 20260510134247 | 67 | 130 | 0.0 | 4.0 | 0.00 | 0.00 | 0.00 | 48 | 1012.1 |
| 20260510134236 | 67 | 165 | 0.0 | 4.0 | 0.00 | 0.00 | 0.00 | 48 | 1012.0 |
| 20260510133953 | 67 | 156 | 0.0 | 4.0 | 0.00 | 0.00 | 0.00 | 48 | 1012.2 |
| 20260510133700 | 67 | 158 | 0.0 | 4.0 | 0.00 | 0.00 | 0.00 | 46 | 1012.4 |
| 20260510133556 | 67 | 20 | 2.0 | 4.0 | 0.00 | 0.00 | 0.00 | 47 | 1012.3 |
| 20260510133528 | 67 | 36 | 1.0 | 3.0 | 0.00 | 0.00 | 0.00 | 47 | 1012.3 |
| 20260510133515 | 66 | 198 | 0.0 | 6.0 | 0.00 | 0.00 | 0.00 | 47 | 1012.4 |
| 20260510133508 | 67 | 175 | 0.0 | 3.0 | 0.00 | 0.00 | 0.00 | 46 | 1012.3 |
| 20260510133500 | 67 | 81 | 0.0 | 3.0 | 0.00 | 0.00 | 0.00 | 48 | 1012.3 |
| 20260510133437 | 66 | 70 | 1.0 | 3.0 | 0.00 | 0.00 | 0.00 | 47 | 1012.0 |
| 20260510133418 | 66 | 117 | 0.0 | 3.0 | 0.00 | 0.00 | 0.00 | 47 | 1012.0 |
| 20260510133100 | 67 | 162 | 0.0 | 3.0 | 0.00 | 0.00 | 0.00 | 46 | 1012.3 |
| 20260510133051 | 67 | 175 | 0.0 | 3.0 | 0.00 | 0.00 | 0.00 | 46 | 1012.3 |
| 20260510133034 | 67 | 153 | 1.0 | 3.0 | 0.00 | 0.00 | 0.00 | 47 | 1012.1 |
| 20260510133018 | 67 | 59 | 2.0 | 3.0 | 0.00 | 0.00 | 0.00 | 46 | 1012.3 |
| 20260510133002 | 67 | 181 | 0.0 | 6.0 | 0.00 | 0.00 | 0.00 | 47 | 1012.3 |
| 20260510132724 | 66 | 180 | 0.0 | 6.0 | 0.00 | 0.00 | 0.00 | 48 | 1012.4 |
| 20260510132713 | 66 | 198 | 0.0 | 6.0 | 0.00 | 0.00 | 0.00 | 47 | 1012.4 |
| 20260510132403 | 66 | 128 | 2.0 | 6.0 | 0.00 | 0.00 | 0.00 | 46 | 1012.4 |
| 20260510132156 | 67 | 158 | 0.0 | 6.0 | 0.00 | 0.00 | 0.00 | 46 | 1012.7 |
| 20260510132056 | 67 | 183 | 0.0 | 6.0 | 0.00 | 0.00 | 0.00 | 45 | 1012.3 |
| 20260510132028 | 67 | 196 | 0.0 | 6.0 | 0.00 | 0.00 | 0.00 | 45 | 1012.3 |
| 20260510131959 | 67 | 200 | 0.0 | 6.0 | 0.00 | 0.00 | 0.00 | 46 | 1012.5 |
| 20260510131856 | 66 | 226 | 5.0 | 6.0 | 0.00 | 0.00 | 0.00 | 46 | 1012.7 |
| 20260510131757 | 66 | 197 | 2.0 | 6.0 | 0.00 | 0.00 | 0.00 | 47 | 1012.7 |
| 20260510131656 | 66 | 188 | 0.0 | 6.0 | 0.00 | 0.00 | 0.00 | 46 | 1012.9 |
| 20260510131556 | 66 | 211 | 3.0 | 6.0 | 0.00 | 0.00 | 0.00 | 47 | 1012.5 |
| 20260510131528 | 66 | 190 | 1.0 | 3.0 | 0.00 | 0.00 | 0.00 | 47 | 1012.5 |
| 20260510131457 | 66 | 186 | 0.0 | 3.0 | 0.00 | 0.00 | 0.00 | 50 | 1012.6 |
| 20260510131440 | 67 | 127 | 0.0 | 3.0 | 0.00 | 0.00 | 0.00 | 47 | 1012.6 |
| 20260510131403 | 66 | 190 | 2.0 | 3.0 | 0.00 | 0.00 | 0.00 | 47 | 1013.0 |
| 20260510131258 | 67 | 145 | 1.0 | 3.0 | 0.00 | 0.00 | 0.00 | 48 | 1012.6 |
| 20260510131243 | 67 | 43 | 1.0 | 3.0 | 0.00 | 0.00 | 0.00 | 47 | 1012.8 |
| 20260510131228 | 67 | 161 | 0.0 | 3.0 | 0.00 | 0.00 | 0.00 | 47 | 1012.6 |
| 20260510130856 | 67 | 116 | 0.0 | 3.0 | 0.00 | 0.00 | 0.00 | 47 | 1012.8 |
| 20260510130756 | 68 | 57 | 1.0 | 3.0 | 0.00 | 0.00 | 0.00 | 46 | 1012.9 |
| 20260510130656 | 68 | 196 | 0.0 | 3.0 | 0.00 | 0.00 | 0.00 | 49 | 1012.8 |
| 20260510130556 | 68 | 198 | 0.0 | 3.0 | 0.00 | 0.00 | 0.00 | 49 | 1012.8 |
| 20260510130544 | 67 | 199 | 0.0 | 3.0 | 0.00 | 0.00 | 0.00 | 49 | 1012.8 |
| 20260510130401 | 67 | 201 | 0.0 | 4.0 | 0.00 | 0.00 | 0.00 | 46 | 1012.7 |
| 20260510130257 | 67 | 211 | 0.0 | 4.0 | 0.00 | 0.00 | 0.00 | 46 | 1012.5 |
| 20260510130200 | 67 | 219 | 0.0 | 6.0 | 0.00 | 0.00 | 0.00 | 48 | 1012.7 |
| 20260510130148 | 67 | 199 | 0.0 | 6.0 | 0.00 | 0.00 | 0.00 | 47 | 1012.6 |
| 20260510130125 | 67 | 203 | 0.0 | 6.0 | 0.00 | 0.00 | 0.00 | 48 | 1012.6 |
| 20260510130116 | 67 | 192 | 0.0 | 6.0 | 0.00 | 0.00 | 0.00 | 50 | 1012.5 |
| 20260510125811 | 66 | 201 | 1.0 | 6.0 | 0.00 | 0.00 | 0.00 | 47 | 1012.6 |
| 20260510125801 | 66 | 187 | 0.0 | 6.0 | 0.00 | 0.00 | 0.00 | 48 | 1012.7 |
| 20260510125705 | 65 | 105 | 1.0 | 7.0 | 0.00 | 0.00 | 0.00 | 49 | 1012.8 |
| 20260510125658 | 66 | 202 | 0.0 | 6.0 | 0.00 | 0.00 | 0.00 | 47 | 1012.6 |
| 20260510125647 | 66 | 60 | 1.0 | 8.0 | 0.00 | 0.00 | 0.00 | 52 | 1012.8 |
| 20260510125613 | 66 | 185 | 1.0 | 6.0 | 0.00 | 0.00 | 0.00 | 47 | 1012.6 |
| 20260510125602 | 66 | 201 | 1.0 | 6.0 | 0.00 | 0.00 | 0.00 | 47 | 1012.6 |
| 20260510125456 | 66 | 211 | 0.0 | 6.0 | 0.00 | 0.00 | 0.00 | 47 | 1012.9 |
| 20260510125425 | 65 | 105 | 1.0 | 7.0 | 0.00 | 0.00 | 0.00 | 49 | 1012.8 |
| 20260510125420 | 66 | 60 | 1.0 | 8.0 | 0.00 | 0.00 | 0.00 | 52 | 1012.8 |
| 20260510125409 | 66 | 207 | 4.0 | 6.0 | 0.00 | 0.00 | 0.00 | 46 | 1012.7 |
| 20260510125352 | 67 | 208 | 3.0 | 6.0 | 0.00 | 0.00 | 0.00 | 47 | 1012.9 |
| 20260510125337 | 67 | 191 | 1.0 | 4.0 | 0.00 | 0.00 | 0.00 | 48 | 1012.8 |
| 20260510125102 | 66 | 184 | 0.0 | 4.0 | 0.00 | 0.00 | 0.00 | 48 | 1012.8 |
| 20260510125054 | 66 | 198 | 0.0 | 4.0 | 0.00 | 0.00 | 0.00 | 47 | 1012.8 |
| 20260510125029 | 66 | 199 | 0.0 | 7.0 | 0.00 | 0.00 | 0.00 | 48 | 1013.0 |
| 20260510125013 | 66 | 41 | 2.0 | 7.0 | 0.00 | 0.00 | 0.00 | 48 | 1012.8 |
| 20260510124947 | 65 | 85 | 0.0 | 7.0 | 0.00 | 0.00 | 0.00 | 49 | 1013.0 |
| 20260510124932 | 65 | 183 | 0.0 | 7.0 | 0.00 | 0.00 | 0.00 | 48 | 1012.8 |
| 20260510124447 | 66 | 46 | 1.0 | 7.0 | 0.00 | 0.00 | 0.00 | 49 | 1012.9 |
| 20260510124430 | 66 | 63 | 4.0 | 8.0 | 0.00 | 0.00 | 0.00 | 48 | 1012.9 |
| 20260510124155 | 66 | 51 | 1.0 | 8.0 | 0.00 | 0.00 | 0.00 | 50 | 1012.8 |
| 20260510124130 | 66 | 60 | 1.0 | 8.0 | 0.00 | 0.00 | 0.00 | 52 | 1012.8 |
| 20260510124117 | 65 | 192 | 4.0 | 8.0 | 0.00 | 0.00 | 0.00 | 48 | 1012.7 |
| 20260510123756 | 66 | 77 | 2.0 | 8.0 | 0.00 | 0.00 | 0.00 | 48 | 1012.9 |
| 20260510123659 | 66 | 55 | 4.0 | 8.0 | 0.00 | 0.00 | 0.00 | 48 | 1012.9 |
| 20260510123620 | 66 | 48 | 2.0 | 4.0 | 0.00 | 0.00 | 0.00 | 49 | 1012.7 |
| 20260510123612 | 66 | 190 | 0.0 | 6.0 | 0.00 | 0.00 | 0.00 | 48 | 1012.9 |
| 20260510123608 | 65 | 70 | 1.0 | 4.0 | 0.00 | 0.00 | 0.00 | 50 | 1013.3 |
| 20260510123604 | 65 | 180 | 0.0 | 7.0 | 0.00 | 0.00 | 0.00 | 51 | 1013.2 |
| 20260510123558 | 66 | 80 | 1.0 | 8.0 | 0.00 | 0.00 | 0.00 | 48 | 1012.9 |
| 20260510123545 | 66 | 137 | 0.0 | 8.0 | 0.00 | 0.00 | 0.00 | 50 | 1012.9 |
| 20260510123536 | 66 | 49 | 3.0 | 8.0 | 0.00 | 0.00 | 0.00 | 49 | 1012.8 |
| 20260510123520 | 66 | 92 | 1.0 | 8.0 | 0.00 | 0.00 | 0.00 | 51 | 1012.9 |
| 20260510123241 | 66 | 129 | 0.0 | 6.0 | 0.00 | 0.00 | 0.00 | 50 | 1012.6 |
| 20260510123224 | 66 | 61 | 1.0 | 4.0 | 0.00 | 0.00 | 0.00 | 50 | 1012.7 |
| 20260510123055 | 66 | 180 | 0.0 | 3.0 | 0.00 | 0.00 | 0.00 | 49 | 1012.8 |
| 20260510123039 | 66 | 56 | 0.0 | 3.0 | 0.00 | 0.00 | 0.00 | 49 | 1012.9 |
| 20260510123024 | 65 | 174 | 0.0 | 4.0 | 0.00 | 0.00 | 0.00 | 52 | 1012.8 |
| 20260510122746 | 65 | 186 | 0.0 | 6.0 | 0.00 | 0.00 | 0.00 | 51 | 1013.0 |
| 20260510122732 | 65 | 184 | 0.0 | 6.0 | 0.00 | 0.00 | 0.00 | 51 | 1013.0 |
| 20260510122729 | 65 | 153 | 1.0 | 6.0 | 0.00 | 0.00 | 0.00 | 50 | 1013.0 |
| 20260510122705 | 65 | 150 | 0.0 | 6.0 | 0.00 | 0.00 | 0.00 | 49 | 1013.1 |
| 20260510122627 | 65 | 51 | 0.0 | 6.0 | 0.00 | 0.00 | 0.00 | 49 | 1012.9 |
| 20260510122343 | 65 | 32 | 1.0 | 6.0 | 0.00 | 0.00 | 0.00 | 49 | 1013.0 |
| 20260510122332 | 65 | 53 | 1.0 | 6.0 | 0.00 | 0.00 | 0.00 | 50 | 1013.0 |
| 20260510122306 | 66 | 85 | 0.0 | 4.0 | 0.00 | 0.00 | 0.00 | 49 | 1012.9 |
| 20260510122247 | 66 | 206 | 0.0 | 4.0 | 0.00 | 0.00 | 0.00 | 48 | 1013.2 |
| 20260510122228 | 66 | 205 | 0.0 | 6.0 | 0.00 | 0.00 | 0.00 | 48 | 1012.9 |
| 20260510122001 | 66 | 199 | 1.0 | 6.0 | 0.00 | 0.00 | 0.00 | 48 | 1013.2 |
| 20260510121944 | 65 | 202 | 0.0 | 6.0 | 0.00 | 0.00 | 0.00 | 48 | 1013.2 |
| 20260510121928 | 65 | 210 | 0.0 | 6.0 | 0.00 | 0.00 | 0.00 | 48 | 1013.1 |
| 20260510121909 | 65 | 153 | 0.0 | 6.0 | 0.00 | 0.00 | 0.00 | 48 | 1013.1 |
| 20260510121632 | 65 | 173 | 0.0 | 6.0 | 0.00 | 0.00 | 0.00 | 50 | 1013.2 |
| 20260510121623 | 65 | 194 | 0.0 | 6.0 | 0.00 | 0.00 | 0.00 | 48 | 1013.2 |
| 20260510121346 | 65 | 53 | 1.0 | 6.0 | 0.00 | 0.00 | 0.00 | 50 | 1013.2 |
| 20260510121329 | 65 | 64 | 2.0 | 6.0 | 0.00 | 0.00 | 0.00 | 51 | 1013.2 |
| 20260510120842 | 65 | 143 | 0.0 | 4.0 | 0.00 | 0.00 | 0.00 | 50 | 1013.3 |
| 20260510120604 | 64 | 181 | 0.0 | 4.0 | 0.00 | 0.00 | 0.00 | 51 | 1013.4 |
| 20260510120109 | 65 | 149 | 0.0 | 6.0 | 0.00 | 0.00 | 0.00 | 48 | 1013.5 |
| 20260510120053 | 65 | 58 | 2.0 | 6.0 | 0.00 | 0.00 | 0.00 | 48 | 1013.4 |
| 20260510120037 | 65 | 165 | 0.0 | 7.0 | 0.00 | 0.00 | 0.00 | 49 | 1013.4 |
| 20260510115802 | 65 | 79 | 1.0 | 7.0 | 0.00 | 0.00 | 0.00 | 51 | 1013.4 |
| 20260510115746 | 65 | 38 | 1.0 | 7.0 | 0.00 | 0.00 | 0.00 | 50 | 1013.2 |
| 20260510115457 | 65 | 64 | 2.0 | 7.0 | 0.00 | 0.00 | 0.00 | 49 | 1013.3 |
| 20260510115355 | 65 | 158 | 0.0 | 7.0 | 0.00 | 0.00 | 0.00 | 50 | 1013.5 |
| 20260510115343 | 64 | 183 | 1.0 | 7.0 | 0.00 | 0.00 | 0.00 | 49 | 1013.1 |
| 20260510115339 | 64 | 92 | 1.0 | 7.0 | 0.00 | 0.00 | 0.00 | 51 | 1013.3 |
| 20260510115330 | 64 | 55 | 1.0 | 7.0 | 0.00 | 0.00 | 0.00 | 51 | 1013.4 |
| 20260510115314 | 64 | 122 | 0.0 | 7.0 | 0.00 | 0.00 | 0.00 | 51 | 1013.1 |
| 20260510115258 | 64 | 105 | 0.0 | 7.0 | 0.00 | 0.00 | 0.00 | 49 | 1013.1 |
| 20260510115028 | 64 | 33 | 3.0 | 7.0 | 0.00 | 0.00 | 0.00 | 52 | 1013.4 |
| 20260510115013 | 64 | 164 | 0.0 | 7.0 | 0.00 | 0.00 | 0.00 | 50 | 1013.5 |
| 20260510114958 | 64 | 0 | 1.0 | 7.0 | 0.00 | 0.00 | 0.00 | 50 | 1013.5 |
| 20260510114942 | 64 | 215 | 1.0 | 7.0 | 0.00 | 0.00 | 0.00 | 49 | 1013.4 |
| 20260510114926 | 64 | 67 | 1.0 | 7.0 | 0.00 | 0.00 | 0.00 | 49 | 1013.3 |
| 20260510114358 | 64 | 69 | 1.0 | 6.0 | 0.00 | 0.00 | 0.00 | 51 | 1013.5 |
| 20260510114256 | 64 | 72 | 0.0 | 6.0 | 0.00 | 0.00 | 0.00 | 51 | 1013.4 |
| 20260510114240 | 64 | 69 | 2.0 | 6.0 | 0.00 | 0.00 | 0.00 | 50 | 1013.6 |
| 20260510114224 | 64 | 107 | 0.0 | 6.0 | 0.00 | 0.00 | 0.00 | 52 | 1013.6 |
| 20260510114209 | 64 | 129 | 1.0 | 6.0 | 0.00 | 0.00 | 0.00 | 52 | 1013.6 |
| 20260510113856 | 64 | 46 | 3.0 | 6.0 | 0.00 | 0.00 | 0.00 | 50 | 1013.6 |
| 20260510113756 | 64 | 46 | 3.0 | 6.0 | 0.00 | 0.00 | 0.00 | 51 | 1013.5 |
| 20260510113739 | 64 | 80 | 0.0 | 9.0 | 0.00 | 0.00 | 0.00 | 50 | 1013.6 |
| 20260510113729 | 64 | 61 | 2.0 | 8.0 | 0.00 | 0.00 | 0.00 | 51 | 1013.5 |
| 20260510113714 | 64 | 102 | 2.0 | 8.0 | 0.00 | 0.00 | 0.00 | 50 | 1013.6 |
| 20260510113701 | 64 | 55 | 2.0 | 8.0 | 0.00 | 0.00 | 0.00 | 53 | 1013.6 |
| 20260510113652 | 64 | 141 | 0.0 | 8.0 | 0.00 | 0.00 | 0.00 | 50 | 1013.4 |
| 20260510113636 | 64 | 52 | 3.0 | 8.0 | 0.00 | 0.00 | 0.00 | 50 | 1013.6 |
| 20260510113621 | 64 | 175 | 0.0 | 8.0 | 0.00 | 0.00 | 0.00 | 51 | 1013.8 |
| 20260510113345 | 64 | 79 | 1.0 | 9.0 | 0.00 | 0.00 | 0.00 | 50 | 1013.6 |
| 20260510113117 | 64 | 117 | 0.0 | 9.0 | 0.00 | 0.00 | 0.00 | 51 | 1013.5 |
| 20260510112827 | 63 | 145 | 2.0 | 9.0 | 0.00 | 0.00 | 0.00 | 50 | 1013.8 |
| 20260510112819 | 63 | 67 | 4.0 | 9.0 | 0.00 | 0.00 | 0.00 | 50 | 1013.7 |
| 20260510112804 | 63 | 75 | 1.0 | 9.0 | 0.00 | 0.00 | 0.00 | 51 | 1013.7 |
| 20260510112748 | 63 | 76 | 1.0 | 9.0 | 0.00 | 0.00 | 0.00 | 51 | 1013.8 |
| 20260510112456 | 63 | 45 | 3.0 | 9.0 | 0.00 | 0.00 | 0.00 | 51 | 1013.9 |
| 20260510112358 | 63 | 168 | 0.0 | 9.0 | 0.00 | 0.00 | 0.00 | 51 | 1013.9 |
| 20260510112257 | 63 | 119 | 3.0 | 9.0 | 0.00 | 0.00 | 0.00 | 50 | 1013.8 |
| 20260510112230 | 63 | 83 | 1.0 | 7.0 | 0.00 | 0.00 | 0.00 | 51 | 1013.8 |
| 20260510112214 | 63 | 47 | 4.0 | 7.0 | 0.00 | 0.00 | 0.00 | 50 | 1013.6 |
| 20260510112158 | 63 | 95 | 1.0 | 7.0 | 0.00 | 0.00 | 0.00 | 51 | 1013.6 |
| 20260510112149 | 64 | 69 | 2.0 | 7.0 | 0.00 | 0.00 | 0.00 | 50 | 1013.8 |
| 20260510112134 | 64 | 184 | 1.0 | 7.0 | 0.00 | 0.00 | 0.00 | 49 | 1013.9 |
| 20260510112117 | 64 | 60 | 1.0 | 7.0 | 0.00 | 0.00 | 0.00 | 50 | 1013.5 |
| 20260510112101 | 64 | 78 | 2.0 | 7.0 | 0.00 | 0.00 | 0.00 | 50 | 1013.8 |
| 20260510111829 | 65 | 140 | 2.0 | 7.0 | 0.00 | 0.00 | 0.00 | 49 | 1013.7 |
| 20260510111257 | 65 | 213 | 3.0 | 6.0 | 0.00 | 0.00 | 0.00 | 49 | 1013.6 |
| 20260510111156 | 65 | 104 | 0.0 | 6.0 | 0.00 | 0.00 | 0.00 | 51 | 1013.9 |
| 20260510111056 | 65 | 198 | 3.0 | 6.0 | 0.00 | 0.00 | 0.00 | 52 | 1013.9 |
| 20260510111040 | 64 | 211 | 2.0 | 4.0 | 0.00 | 0.00 | 0.00 | 51 | 1013.9 |
| 20260510111031 | 64 | 191 | 0.0 | 6.0 | 0.00 | 0.00 | 0.00 | 54 | 1013.9 |
| 20260510111015 | 64 | 186 | 0.0 | 6.0 | 0.00 | 0.00 | 0.00 | 53 | 1014.0 |
| 20260510110656 | 64 | 113 | 0.0 | 6.0 | 0.00 | 0.00 | 0.00 | 54 | 1014.0 |
| 20260510110556 | 64 | 60 | 0.0 | 8.0 | 0.00 | 0.00 | 0.00 | 53 | 1014.0 |
| 20260510110542 | 64 | 133 | 0.0 | 8.0 | 0.00 | 0.00 | 0.00 | 52 | 1014.0 |
| 20260510110458 | 64 | 114 | 2.0 | 13.0 | 0.00 | 0.00 | 0.00 | 51 | 1014.1 |
| 20260510110356 | 64 | 51 | 3.0 | 13.0 | 0.00 | 0.00 | 0.00 | 51 | 1014.1 |
| 20260510110328 | 62 | 55 | 2.0 | 13.0 | 0.00 | 0.00 | 0.00 | 52 | 1013.8 |
| 20260510110320 | 64 | 110 | 0.0 | 13.0 | 0.00 | 0.00 | 0.00 | 52 | 1014.1 |
| 20260510110304 | 63 | 115 | 0.0 | 13.0 | 0.00 | 0.00 | 0.00 | 53 | 1014.0 |
| 20260510110247 | 63 | 120 | 1.0 | 13.0 | 0.00 | 0.00 | 0.00 | 52 | 1013.8 |
| 20260510105956 | 62 | 177 | 1.0 | 13.0 | 0.00 | 0.00 | 0.00 | 51 | 1014.0 |
| 20260510105934 | 62 | 204 | 3.0 | 13.0 | 0.00 | 0.00 | 0.00 | 51 | 1013.8 |
| 20260510105917 | 62 | 147 | 2.0 | 13.0 | 0.00 | 0.00 | 0.00 | 50 | 1014.1 |
| 20260510105557 | 62 | 210 | 2.0 | 13.0 | 0.00 | 0.00 | 0.00 | 50 | 1014.2 |
| 20260510105528 | 63 | 207 | 2.0 | 8.0 | 0.00 | 0.00 | 0.00 | 50 | 1014.2 |
| 20260510105456 | 63 | 193 | 4.0 | 8.0 | 0.00 | 0.00 | 0.00 | 50 | 1014.0 |
| 20260510105356 | 63 | 164 | 3.0 | 8.0 | 0.00 | 0.00 | 0.00 | 51 | 1013.8 |
| 20260510105256 | 63 | 46 | 7.0 | 8.0 | 0.00 | 0.00 | 0.00 | 52 | 1014.0 |
| 20260510105156 | 63 | 52 | 1.0 | 8.0 | 0.00 | 0.00 | 0.00 | 53 | 1014.1 |
| 20260510105057 | 63 | 59 | 2.0 | 8.0 | 0.00 | 0.00 | 0.00 | 53 | 1014.0 |
| 20260510105028 | 62 | 69 | 2.0 | 8.0 | 0.00 | 0.00 | 0.00 | 52 | 1014.0 |
| 20260510104956 | 62 | 61 | 4.0 | 8.0 | 0.00 | 0.00 | 0.00 | 51 | 1014.2 |
| 20260510104856 | 62 | 42 | 3.0 | 8.0 | 0.00 | 0.00 | 0.00 | 54 | 1014.2 |
| 20260510104757 | 62 | 57 | 1.0 | 8.0 | 0.00 | 0.00 | 0.00 | 50 | 1014.2 |
| 20260510104656 | 62 | 76 | 1.0 | 8.0 | 0.00 | 0.00 | 0.00 | 52 | 1014.3 |
| 20260510104556 | 62 | 51 | 3.0 | 8.0 | 0.00 | 0.00 | 0.00 | 51 | 1014.1 |
| 20260510104528 | 62 | 115 | 2.0 | 8.0 | 0.00 | 0.00 | 0.00 | 51 | 1014.1 |
| 20260510104456 | 62 | 88 | 4.0 | 8.0 | 0.00 | 0.00 | 0.00 | 51 | 1014.3 |
| 20260510104356 | 63 | 339 | 6.0 | 8.0 | 0.00 | 0.00 | 0.00 | 50 | 1014.3 |
| 20260510104256 | 63 | 73 | 2.0 | 8.0 | 0.00 | 0.00 | 0.00 | 51 | 1014.5 |
| 20260510104157 | 62 | 68 | 1.0 | 8.0 | 0.00 | 0.00 | 0.00 | 54 | 1014.3 |
| 20260510104057 | 62 | 173 | 0.0 | 8.0 | 0.00 | 0.00 | 0.00 | 52 | 1014.3 |
| 20260510104028 | 62 | 95 | 1.0 | 8.0 | 0.00 | 0.00 | 0.00 | 53 | 1014.3 |
| 20260510103956 | 62 | 53 | 2.0 | 8.0 | 0.00 | 0.00 | 0.00 | 51 | 1014.5 |
| 20260510103856 | 62 | 48 | 4.0 | 8.0 | 0.00 | 0.00 | 0.00 | 51 | 1014.5 |
| 20260510103832 | 62 | 53 | 4.0 | 8.0 | 0.00 | 0.00 | 0.00 | 51 | 1014.5 |
| 20260510103816 | 63 | 45 | 5.0 | 8.0 | 0.00 | 0.00 | 0.00 | 51 | 1014.3 |
| 20260510103541 | 63 | 52 | 4.0 | 8.0 | 0.00 | 0.00 | 0.00 | 50 | 1014.6 |
| 20260510103532 | 63 | 43 | 1.0 | 7.0 | 0.00 | 0.00 | 0.00 | 53 | 1014.7 |
| 20260510103516 | 63 | 66 | 1.0 | 7.0 | 0.00 | 0.00 | 0.00 | 54 | 1014.7 |
| 20260510103501 | 63 | 79 | 3.0 | 7.0 | 0.00 | 0.00 | 0.00 | 51 | 1014.6 |
| 20260510103226 | 63 | 44 | 4.0 | 7.0 | 0.00 | 0.00 | 0.00 | 52 | 1014.5 |
| 20260510103211 | 63 | 52 | 2.0 | 7.0 | 0.00 | 0.00 | 0.00 | 50 | 1014.5 |
| 20260510102856 | 63 | 82 | 1.0 | 7.0 | 0.00 | 0.00 | 0.00 | 51 | 1014.7 |
| 20260510102756 | 63 | 78 | 1.0 | 7.0 | 0.00 | 0.00 | 0.00 | 51 | 1014.3 |
| 20260510102702 | 63 | 355 | 2.0 | 7.0 | 0.00 | 0.00 | 0.00 | 51 | 1014.9 |
| 20260510102557 | 63 | 66 | 1.0 | 7.0 | 0.00 | 0.00 | 0.00 | 51 | 1015.0 |
| 20260510102529 | 63 | 51 | 2.0 | 7.0 | 0.00 | 0.00 | 0.00 | 52 | 1015.0 |
| 20260510102457 | 62 | 41 | 2.0 | 7.0 | 0.00 | 0.00 | 0.00 | 53 | 1015.0 |
| 20260510102356 | 62 | 92 | 1.0 | 8.0 | 0.00 | 0.00 | 0.00 | 52 | 1014.9 |
| 20260510102256 | 62 | 82 | 0.0 | 8.0 | 0.00 | 0.00 | 0.00 | 54 | 1014.9 |
| 20260510102156 | 62 | 46 | 3.0 | 8.0 | 0.00 | 0.00 | 0.00 | 52 | 1015.0 |
| 20260510102057 | 62 | 142 | 3.0 | 8.0 | 0.00 | 0.00 | 0.00 | 53 | 1015.2 |
| 20260510102028 | 62 | 68 | 1.0 | 8.0 | 0.00 | 0.00 | 0.00 | 53 | 1015.2 |
| 20260510101957 | 62 | 111 | 0.0 | 8.0 | 0.00 | 0.00 | 0.00 | 53 | 1015.0 |
| 20260510101856 | 62 | 114 | 1.0 | 8.0 | 0.00 | 0.00 | 0.00 | 52 | 1014.9 |
| 20260510101756 | 61 | 112 | 2.0 | 8.0 | 0.00 | 0.00 | 0.00 | 54 | 1015.0 |
| 20260510101656 | 61 | 54 | 2.0 | 8.0 | 0.00 | 0.00 | 0.00 | 54 | 1015.1 |
| 20260510101555 | 62 | 84 | 2.0 | 8.0 | 0.00 | 0.00 | 0.00 | 53 | 1014.9 |
| 20260510101542 | 62 | 73 | 2.0 | 8.0 | 0.00 | 0.00 | 0.00 | 52 | 1014.9 |
| 20260510101533 | 62 | 52 | 4.0 | 8.0 | 0.00 | 0.00 | 0.00 | 52 | 1015.1 |
| 20260510101516 | 62 | 65 | 2.0 | 7.0 | 0.00 | 0.00 | 0.00 | 52 | 1015.0 |
| 20260510101156 | 62 | 72 | 1.0 | 8.0 | 0.00 | 0.00 | 0.00 | 52 | 1015.1 |
| 20260510101134 | 62 | 54 | 2.0 | 8.0 | 0.00 | 0.00 | 0.00 | 52 | 1014.9 |
| 20260510101119 | 62 | 33 | 4.0 | 8.0 | 0.00 | 0.00 | 0.00 | 52 | 1014.9 |
| 20260510101110 | 62 | 60 | 1.0 | 8.0 | 0.00 | 0.00 | 0.00 | 53 | 1015.3 |
| 20260510101053 | 62 | 167 | 1.0 | 8.0 | 0.00 | 0.00 | 0.00 | 52 | 1015.2 |
| 20260510101036 | 62 | 111 | 3.0 | 8.0 | 0.00 | 0.00 | 0.00 | 52 | 1015.1 |
| 20260510100528 | 61 | 115 | 2.0 | 8.0 | 0.00 | 0.00 | 0.00 | 53 | 1015.2 |
| 20260510100457 | 61 | 83 | 0.0 | 8.0 | 0.00 | 0.00 | 0.00 | 54 | 1015.2 |
| 20260510100356 | 61 | 40 | 5.0 | 8.0 | 0.00 | 0.00 | 0.00 | 53 | 1015.1 |
| 20260510100256 | 61 | 52 | 1.0 | 8.0 | 0.00 | 0.00 | 0.00 | 52 | 1015.2 |
| 20260510100156 | 61 | 51 | 2.0 | 8.0 | 0.00 | 0.00 | 0.00 | 52 | 1015.3 |
| 20260510100056 | 61 | 71 | 3.0 | 8.0 | 0.00 | 0.00 | 0.00 | 53 | 1015.4 |
| 20260510100029 | 61 | 45 | 2.0 | 8.0 | 0.00 | 0.00 | 0.00 | 54 | 1015.4 |
| 20260510095955 | 61 | 81 | 0.0 | 8.0 | 0.00 | 0.00 | 0.00 | 52 | 1015.3 |
| 20260510095857 | 61 | 70 | 0.0 | 8.0 | 0.00 | 0.00 | 0.00 | 53 | 1015.1 |
| 20260510095756 | 61 | 65 | 1.0 | 8.0 | 0.00 | 0.00 | 0.00 | 53 | 1015.3 |
| 20260510095657 | 61 | 66 | 3.0 | 8.0 | 0.00 | 0.00 | 0.00 | 52 | 1015.3 |
| 20260510095557 | 60 | 35 | 1.0 | 8.0 | 0.00 | 0.00 | 0.00 | 53 | 1015.4 |
| 20260510095529 | 60 | 104 | 3.0 | 8.0 | 0.00 | 0.00 | 0.00 | 52 | 1015.4 |
| 20260510095456 | 60 | 54 | 5.0 | 8.0 | 0.00 | 0.00 | 0.00 | 53 | 1015.3 |
| 20260510095432 | 60 | 79 | 2.0 | 8.0 | 0.00 | 0.00 | 0.00 | 54 | 1015.1 |
| 20260510095415 | 60 | 62 | 4.0 | 8.0 | 0.00 | 0.00 | 0.00 | 54 | 1015.2 |
| 20260510095028 | 60 | 70 | 5.0 | 8.0 | 0.00 | 0.00 | 0.00 | 54 | 1015.4 |
| 20260510094945 | 60 | 48 | 4.0 | 8.0 | 0.00 | 0.00 | 0.00 | 54 | 1015.4 |
| 20260510094844 | 61 | 64 | 5.0 | 11.0 | 0.00 | 0.00 | 0.00 | 53 | 1015.3 |
| 20260510094745 | 60 | 110 | 1.0 | 11.0 | 0.00 | 0.00 | 0.00 | 54 | 1015.0 |
| 20260510094644 | 61 | 187 | 6.0 | 11.0 | 0.00 | 0.00 | 0.00 | 54 | 1015.2 |
| 20260510094544 | 61 | 92 | 2.0 | 11.0 | 0.00 | 0.00 | 0.00 | 55 | 1015.5 |
| 20260510094529 | 61 | 82 | 1.0 | 11.0 | 0.00 | 0.00 | 0.00 | 55 | 1015.5 |
| 20260510094444 | 61 | 73 | 1.0 | 11.0 | 0.00 | 0.00 | 0.00 | 55 | 1015.4 |
| 20260510094345 | 60 | 52 | 2.0 | 11.0 | 0.00 | 0.00 | 0.00 | 55 | 1015.4 |
| 20260510094245 | 60 | 53 | 3.0 | 11.0 | 0.00 | 0.00 | 0.00 | 54 | 1015.4 |
| 20260510094229 | 61 | 71 | 4.0 | 11.0 | 0.00 | 0.00 | 0.00 | 55 | 1015.3 |
| 20260510094214 | 61 | 77 | 2.0 | 11.0 | 0.00 | 0.00 | 0.00 | 54 | 1015.2 |
| 20260510094200 | 61 | 230 | 1.0 | 11.0 | 0.00 | 0.00 | 0.00 | 55 | 1015.2 |
| 20260510093845 | 61 | 187 | 1.0 | 7.0 | 0.00 | 0.00 | 0.00 | 56 | 1015.5 |
| 20260510093824 | 61 | 166 | 4.0 | 13.0 | 0.00 | 0.00 | 0.00 | 55 | 1015.4 |
| 20260510093816 | 61 | 143 | 1.0 | 8.0 | 0.00 | 0.00 | 0.00 | 55 | 1015.4 |
| 20260510093800 | 61 | 122 | 0.0 | 8.0 | 0.00 | 0.00 | 0.00 | 55 | 1015.6 |
| 20260510093744 | 61 | 118 | 3.0 | 13.0 | 0.00 | 0.00 | 0.00 | 56 | 1015.4 |
| 20260510093445 | 61 | 157 | 0.0 | 13.0 | 0.00 | 0.00 | 0.00 | 56 | 1015.5 |
| 20260510093345 | 61 | 173 | 0.0 | 16.0 | 0.00 | 0.00 | 0.00 | 56 | 1015.4 |
| 20260510093244 | 61 | 175 | 1.0 | 16.0 | 0.00 | 0.00 | 0.00 | 56 | 1015.3 |
| 20260510093145 | 61 | 64 | 4.0 | 16.0 | 0.00 | 0.00 | 0.00 | 55 | 1015.6 |
| 20260510093034 | 60 | 208 | 2.0 | 16.0 | 0.00 | 0.00 | 0.00 | 56 | 1015.4 |
| 20260510093024 | 60 | 108 | 2.0 | 16.0 | 0.00 | 0.00 | 0.00 | 56 | 1015.5 |
| 20260510093007 | 61 | 60 | 2.0 | 16.0 | 0.00 | 0.00 | 0.00 | 55 | 1015.5 |
| 20260510092646 | 61 | 174 | 1.0 | 17.0 | 0.00 | 0.00 | 0.00 | 56 | 1015.7 |
| 20260510092544 | 60 | 172 | 1.0 | 17.0 | 0.00 | 0.00 | 0.00 | 56 | 1015.4 |
| 20260510092530 | 60 | 190 | 1.0 | 17.0 | 0.00 | 0.00 | 0.00 | 56 | 1015.4 |
| 20260510092444 | 60 | 209 | 8.0 | 17.0 | 0.00 | 0.00 | 0.00 | 56 | 1015.7 |
| 20260510092344 | 60 | 199 | 1.0 | 17.0 | 0.00 | 0.00 | 0.00 | 56 | 1015.4 |
| 20260510092321 | 61 | 173 | 4.0 | 17.0 | 0.00 | 0.00 | 0.00 | 56 | 1015.5 |
| 20260510092306 | 61 | 108 | 1.0 | 17.0 | 0.00 | 0.00 | 0.00 | 57 | 1015.6 |
| 20260510092028 | 61 | 63 | 0.0 | 17.0 | 0.00 | 0.00 | 0.00 | 54 | 1015.6 |
| 20260510091945 | 61 | 72 | 1.0 | 17.0 | 0.00 | 0.00 | 0.00 | 55 | 1015.5 |
| 20260510091845 | 61 | 47 | 1.0 | 17.0 | 0.00 | 0.00 | 0.00 | 55 | 1015.6 |
| 20260510091828 | 62 | 64 | 4.0 | 9.0 | 0.00 | 0.00 | 0.00 | 53 | 1015.5 |
| 20260510091819 | 61 | 221 | 2.0 | 17.0 | 0.00 | 0.00 | 0.00 | 55 | 1015.5 |
| 20260510091802 | 62 | 186 | 0.0 | 9.0 | 0.00 | 0.00 | 0.00 | 56 | 1015.6 |
| 20260510091746 | 62 | 39 | 4.0 | 9.0 | 0.00 | 0.00 | 0.00 | 54 | 1015.5 |
| 20260510091444 | 62 | 91 | 0.0 | 9.0 | 0.00 | 0.00 | 0.00 | 56 | 1015.6 |
| 20260510091344 | 62 | 186 | 0.0 | 9.0 | 0.00 | 0.00 | 0.00 | 56 | 1015.7 |
| 20260510091316 | 62 | 138 | 3.0 | 9.0 | 0.00 | 0.00 | 0.00 | 56 | 1015.8 |
| 20260510091300 | 62 | 172 | 1.0 | 9.0 | 0.00 | 0.00 | 0.00 | 55 | 1016.0 |
| 20260510091032 | 61 | 100 | 1.0 | 9.0 | 0.00 | 0.00 | 0.00 | 56 | 1015.8 |
| 20260510090933 | 61 | 100 | 1.0 | 9.0 | 0.00 | 0.00 | 0.00 | 55 | 1015.7 |
| 20260510090907 | 61 | 62 | 1.0 | 9.0 | 0.00 | 0.00 | 0.00 | 55 | 1015.7 |
| 20260510090852 | 61 | 71 | 0.0 | 9.0 | 0.00 | 0.00 | 0.00 | 55 | 1015.6 |
| 20260510090532 | 61 | 184 | 0.0 | 9.0 | 0.00 | 0.00 | 0.00 | 57 | 1015.7 |
| 20260510090519 | 61 | 178 | 0.0 | 7.0 | 0.00 | 0.00 | 0.00 | 59 | 1015.6 |
| 20260510090510 | 61 | 222 | 3.0 | 9.0 | 0.00 | 0.00 | 0.00 | 55 | 1015.5 |
| 20260510090455 | 61 | 175 | 2.0 | 9.0 | 0.00 | 0.00 | 0.00 | 55 | 1015.6 |
| 20260510090439 | 61 | 162 | 1.0 | 9.0 | 0.00 | 0.00 | 0.00 | 56 | 1015.7 |
| 20260510090424 | 61 | 183 | 2.0 | 9.0 | 0.00 | 0.00 | 0.00 | 55 | 1015.6 |
| 20260510090404 | 61 | 178 | 0.0 | 7.0 | 0.00 | 0.00 | 0.00 | 59 | 1015.6 |
| 20260510085909 | 60 | 55 | 4.0 | 7.0 | 0.00 | 0.00 | 0.00 | 59 | 1015.7 |
| 20260510085853 | 60 | 48 | 2.0 | 7.0 | 0.00 | 0.00 | 0.00 | 59 | 1015.7 |
| 20260510085532 | 60 | 103 | 2.0 | 7.0 | 0.00 | 0.00 | 0.00 | 58 | 1015.7 |
| 20260510085432 | 60 | 52 | 2.0 | 7.0 | 0.00 | 0.00 | 0.00 | 59 | 1015.8 |
| 20260510085332 | 59 | 138 | 0.0 | 7.0 | 0.00 | 0.00 | 0.00 | 58 | 1015.9 |
| 20260510085232 | 59 | 72 | 3.0 | 7.0 | 0.00 | 0.00 | 0.00 | 58 | 1015.8 |
| 20260510085132 | 59 | 94 | 5.0 | 7.0 | 0.00 | 0.00 | 0.00 | 57 | 1015.6 |
| 20260510085032 | 60 | 56 | 3.0 | 4.0 | 0.00 | 0.00 | 0.00 | 58 | 1015.7 |
| 20260510084635 | 60 | 50 | 2.0 | 9.0 | 0.00 | 0.00 | 0.00 | 61 | 1015.9 |
| 20260510084620 | 60 | 201 | 5.0 | 9.0 | 0.00 | 0.00 | 0.00 | 58 | 1016.1 |
| 20260510084343 | 59 | 79 | 2.0 | 9.0 | 0.00 | 0.00 | 0.00 | 59 | 1016.2 |
| 20260510084327 | 59 | 141 | 2.0 | 9.0 | 0.00 | 0.00 | 0.00 | 59 | 1016.1 |
| 20260510084308 | 59 | 53 | 4.0 | 9.0 | 0.00 | 0.00 | 0.00 | 59 | 1016.1 |
| 20260510084041 | 59 | 57 | 5.0 | 9.0 | 0.00 | 0.00 | 0.00 | 59 | 1016.0 |
| 20260510084025 | 59 | 42 | 4.0 | 9.0 | 0.00 | 0.00 | 0.00 | 58 | 1016.2 |
| 20260510083750 | 60 | 55 | 5.0 | 8.0 | 0.00 | 0.00 | 0.00 | 57 | 1016.1 |
| 20260510083522 | 60 | 52 | 4.0 | 8.0 | 0.00 | 0.00 | 0.00 | 58 | 1016.0 |
| 20260510083421 | 60 | 35 | 2.0 | 8.0 | 0.00 | 0.00 | 0.00 | 60 | 1016.0 |
| 20260510083321 | 60 | 60 | 1.0 | 8.0 | 0.00 | 0.00 | 0.00 | 59 | 1016.2 |
| 20260510083221 | 59 | 70 | 2.0 | 8.0 | 0.00 | 0.00 | 0.00 | 58 | 1016.1 |
| 20260510083122 | 59 | 41 | 2.0 | 8.0 | 0.00 | 0.00 | 0.00 | 59 | 1016.2 |
| 20260510083028 | 59 | 79 | 2.0 | 8.0 | 0.00 | 0.00 | 0.00 | 58 | 1016.2 |
| 20260510083021 | 59 | 48 | 2.0 | 8.0 | 0.00 | 0.00 | 0.00 | 58 | 1016.1 |
| 20260510082957 | 59 | 91 | 5.0 | 8.0 | 0.00 | 0.00 | 0.00 | 58 | 1016.2 |
| 20260510082941 | 59 | 59 | 2.0 | 8.0 | 0.00 | 0.00 | 0.00 | 58 | 1016.1 |
| 20260510082623 | 60 | 57 | 3.0 | 8.0 | 0.00 | 0.00 | 0.00 | 57 | 1016.2 |
| 20260510082529 | 60 | 38 | 3.0 | 8.0 | 0.00 | 0.00 | 0.00 | 57 | 1016.2 |
| 20260510082523 | 60 | 73 | 2.0 | 7.0 | 0.00 | 0.00 | 0.00 | 58 | 1016.3 |
| 20260510082500 | 59 | 51 | 2.0 | 8.0 | 0.00 | 0.00 | 0.00 | 61 | 1016.4 |
| 20260510082443 | 60 | 185 | 1.0 | 8.0 | 0.00 | 0.00 | 0.00 | 58 | 1016.4 |
| 20260510082121 | 60 | 174 | 0.0 | 8.0 | 0.00 | 0.00 | 0.00 | 59 | 1016.2 |
| 20260510082029 | 60 | 112 | 0.0 | 8.0 | 0.00 | 0.00 | 0.00 | 59 | 1016.2 |
| 20260510082022 | 60 | 112 | 0.0 | 8.0 | 0.00 | 0.00 | 0.00 | 58 | 1016.4 |
| 20260510081922 | 59 | 92 | 1.0 | 10.0 | 0.00 | 0.00 | 0.00 | 59 | 1016.4 |
| 20260510081821 | 58 | 101 | 1.0 | 10.0 | 0.00 | 0.00 | 0.00 | 61 | 1016.3 |
| 20260510081721 | 58 | 103 | 0.0 | 10.0 | 0.00 | 0.00 | 0.00 | 60 | 1016.5 |
| 20260510081620 | 59 | 124 | 1.0 | 10.0 | 0.00 | 0.00 | 0.00 | 60 | 1016.2 |
| 20260510081529 | 59 | 98 | 3.0 | 10.0 | 0.00 | 0.00 | 0.00 | 59 | 1016.2 |
| 20260510081521 | 59 | 52 | 4.0 | 10.0 | 0.00 | 0.00 | 0.00 | 59 | 1016.1 |
| 20260510081420 | 59 | 55 | 5.0 | 10.0 | 0.00 | 0.00 | 0.00 | 58 | 1016.1 |
| 20260510081323 | 59 | 50 | 2.0 | 10.0 | 0.00 | 0.00 | 0.00 | 59 | 1016.5 |
| 20260510081221 | 59 | 44 | 2.0 | 10.0 | 0.00 | 0.00 | 0.00 | 60 | 1016.3 |
| 20260510081121 | 58 | 154 | 2.0 | 11.0 | 0.00 | 0.00 | 0.00 | 61 | 1016.3 |
| 20260510081029 | 58 | 74 | 1.0 | 11.0 | 0.00 | 0.00 | 0.00 | 63 | 1016.3 |
| 20260510081021 | 58 | 95 | 1.0 | 11.0 | 0.00 | 0.00 | 0.00 | 61 | 1016.1 |
| 20260510080923 | 58 | 74 | 1.0 | 11.0 | 0.00 | 0.00 | 0.00 | 60 | 1016.3 |
| 20260510080821 | 58 | 163 | 4.0 | 11.0 | 0.00 | 0.00 | 0.00 | 60 | 1016.2 |
| 20260510080804 | 58 | 54 | 3.0 | 11.0 | 0.00 | 0.00 | 0.00 | 61 | 1016.4 |
| 20260510080748 | 58 | 153 | 3.0 | 11.0 | 0.00 | 0.00 | 0.00 | 60 | 1016.4 |
| 20260510080731 | 58 | 75 | 2.0 | 11.0 | 0.00 | 0.00 | 0.00 | 60 | 1016.4 |
| 20260510080421 | 58 | 188 | 1.0 | 11.0 | 0.00 | 0.00 | 0.00 | 60 | 1016.6 |
| 20260510080321 | 58 | 96 | 1.0 | 11.0 | 0.00 | 0.00 | 0.00 | 60 | 1016.4 |
| 20260510080222 | 58 | 198 | 8.0 | 11.0 | 0.00 | 0.00 | 0.00 | 59 | 1016.4 |
| 20260510080158 | 58 | 204 | 2.0 | 11.0 | 0.00 | 0.00 | 0.00 | 61 | 1016.6 |
| 20260510080141 | 58 | 89 | 1.0 | 11.0 | 0.00 | 0.00 | 0.00 | 61 | 1016.6 |
| 20260510080134 | 58 | 89 | 1.0 | 11.0 | 0.00 | 0.00 | 0.00 | 60 | 1016.6 |
| 20260510080118 | 58 | 38 | 1.0 | 11.0 | 0.00 | 0.00 | 0.00 | 61 | 1016.6 |
| 20260510075842 | 58 | 190 | 1.0 | 8.0 | 0.00 | 0.00 | 0.00 | 60 | 1016.3 |
| 20260510075529 | 58 | 65 | 1.0 | 7.0 | 0.00 | 0.00 | 0.00 | 61 | 1016.3 |
| 20260510075521 | 58 | 98 | 3.0 | 7.0 | 0.00 | 0.00 | 0.00 | 61 | 1016.5 |
| 20260510075421 | 59 | 78 | 0.0 | 7.0 | 0.00 | 0.00 | 0.00 | 60 | 1016.4 |
| 20260510075321 | 59 | 170 | 2.0 | 7.0 | 0.00 | 0.00 | 0.00 | 59 | 1016.4 |
| 20260510075223 | 59 | 172 | 3.0 | 6.0 | 0.00 | 0.00 | 0.00 | 61 | 1016.2 |
| 20260510075206 | 59 | 102 | 1.0 | 6.0 | 0.00 | 0.00 | 0.00 | 62 | 1016.5 |
| 20260510075149 | 58 | 81 | 3.0 | 6.0 | 0.00 | 0.00 | 0.00 | 61 | 1016.5 |
| 20260510075142 | 58 | 35 | 1.0 | 6.0 | 0.00 | 0.00 | 0.00 | 62 | 1016.6 |
| 20260510074822 | 59 | 71 | 2.0 | 6.0 | 0.00 | 0.00 | 0.00 | 60 | 1016.4 |
| 20260510074721 | 59 | 71 | 1.0 | 6.0 | 0.00 | 0.00 | 0.00 | 60 | 1016.4 |
| 20260510074620 | 59 | 54 | 1.0 | 6.0 | 0.00 | 0.00 | 0.00 | 62 | 1016.3 |
| 20260510074529 | 59 | 57 | 3.0 | 6.0 | 0.00 | 0.00 | 0.00 | 62 | 1016.3 |
| 20260510074521 | 59 | 57 | 3.0 | 6.0 | 0.00 | 0.00 | 0.00 | 61 | 1016.4 |
| 20260510074421 | 59 | 17 | 4.0 | 6.0 | 0.00 | 0.00 | 0.00 | 61 | 1016.6 |
| 20260510074320 | 58 | 65 | 0.0 | 6.0 | 0.00 | 0.00 | 0.00 | 64 | 1016.6 |
| 20260510074222 | 58 | 63 | 2.0 | 6.0 | 0.00 | 0.00 | 0.00 | 64 | 1016.5 |
| 20260510074207 | 58 | 211 | 2.0 | 6.0 | 0.00 | 0.00 | 0.00 | 62 | 1016.5 |
| 20260510074147 | 58 | 72 | 3.0 | 6.0 | 0.00 | 0.00 | 0.00 | 63 | 1016.5 |
| 20260510074141 | 58 | 72 | 3.0 | 6.0 | 0.00 | 0.00 | 0.00 | 63 | 1016.4 |
| 20260510073822 | 59 | 95 | 3.0 | 6.0 | 0.00 | 0.00 | 0.00 | 62 | 1016.5 |
| 20260510073721 | 59 | 113 | 2.0 | 6.0 | 0.00 | 0.00 | 0.00 | 63 | 1016.7 |
| 20260510073621 | 59 | 57 | 2.0 | 8.0 | 0.00 | 0.00 | 0.00 | 68 | 1016.6 |
| 20260510073529 | 58 | 151 | 0.0 | 8.0 | 0.00 | 0.00 | 0.00 | 68 | 1016.6 |
| 20260510073522 | 58 | 188 | 0.0 | 8.0 | 0.00 | 0.00 | 0.00 | 68 | 1016.6 |
| 20260510073421 | 58 | 56 | 2.0 | 8.0 | 0.00 | 0.00 | 0.00 | 66 | 1016.7 |
| 20260510073322 | 58 | 57 | 4.0 | 8.0 | 0.00 | 0.00 | 0.00 | 65 | 1016.5 |
| 20260510073221 | 58 | 161 | 0.0 | 8.0 | 0.00 | 0.00 | 0.00 | 66 | 1016.5 |
| 20260510073120 | 58 | 229 | 2.0 | 8.0 | 0.00 | 0.00 | 0.00 | 66 | 1016.5 |
| 20260510073029 | 57 | 180 | 0.0 | 8.0 | 0.00 | 0.00 | 0.00 | 66 | 1016.5 |
| 20260510073020 | 57 | 101 | 1.0 | 8.0 | 0.00 | 0.00 | 0.00 | 66 | 1016.5 |
| 20260510072921 | 57 | 63 | 1.0 | 8.0 | 0.00 | 0.00 | 0.00 | 67 | 1016.5 |
| 20260510072822 | 58 | 114 | 2.0 | 8.0 | 0.00 | 0.00 | 0.00 | 66 | 1016.5 |
| 20260510072722 | 58 | 41 | 3.0 | 8.0 | 0.00 | 0.00 | 0.00 | 66 | 1016.6 |
| 20260510072708 | 58 | 175 | 0.0 | 6.0 | 0.00 | 0.00 | 0.00 | 67 | 1016.7 |
| 20260510072659 | 58 | 45 | 2.0 | 4.0 | 0.00 | 0.00 | 0.00 | 67 | 1016.4 |
| 20260510072643 | 57 | 130 | 0.0 | 4.0 | 0.00 | 0.00 | 0.00 | 67 | 1016.4 |
| 20260510072637 | 57 | 131 | 0.0 | 4.0 | 0.00 | 0.00 | 0.00 | 67 | 1016.5 |
| 20260510072621 | 57 | 44 | 2.0 | 4.0 | 0.00 | 0.00 | 0.00 | 67 | 1016.7 |
| 20260510072604 | 57 | 72 | 2.0 | 4.0 | 0.00 | 0.00 | 0.00 | 67 | 1016.6 |
| 20260510072104 | 58 | 105 | 2.0 | 4.0 | 0.00 | 0.00 | 0.00 | 66 | 1016.4 |
| 20260510072057 | 58 | 105 | 2.0 | 4.0 | 0.00 | 0.00 | 0.00 | 66 | 1016.8 |
| 20260510072041 | 58 | 170 | 2.0 | 4.0 | 0.00 | 0.00 | 0.00 | 65 | 1016.8 |
| 20260510072025 | 58 | 177 | 0.0 | 6.0 | 0.00 | 0.00 | 0.00 | 67 | 1016.7 |
| 20260510071749 | 58 | 174 | 0.0 | 6.0 | 0.00 | 0.00 | 0.00 | 66 | 1016.7 |
| 20260510071522 | 58 | 154 | 0.0 | 6.0 | 0.00 | 0.00 | 0.00 | 67 | 1016.8 |
| 20260510071501 | 57 | 47 | 2.0 | 8.0 | 0.00 | 0.00 | 0.00 | 67 | 1016.6 |
| 20260510071457 | 56 | 68 | 3.0 | 8.0 | 0.00 | 0.00 | 0.00 | 66 | 1016.5 |
| 20260510071448 | 57 | 171 | 0.0 | 7.0 | 0.00 | 0.00 | 0.00 | 68 | 1016.8 |
| 20260510071433 | 57 | 66 | 0.0 | 7.0 | 0.00 | 0.00 | 0.00 | 69 | 1016.8 |
| 20260510071417 | 57 | 104 | 1.0 | 7.0 | 0.00 | 0.00 | 0.00 | 66 | 1016.7 |
| 20260510071402 | 57 | 85 | 2.0 | 7.0 | 0.00 | 0.00 | 0.00 | 66 | 1016.6 |
| 20260510071132 | 57 | 92 | 2.0 | 8.0 | 0.00 | 0.00 | 0.00 | 67 | 1016.8 |
| 20260510071116 | 57 | 48 | 3.0 | 8.0 | 0.00 | 0.00 | 0.00 | 68 | 1016.6 |
| 20260510071101 | 56 | 98 | 1.0 | 8.0 | 0.00 | 0.00 | 0.00 | 66 | 1016.9 |
| 20260510071045 | 56 | 67 | 0.0 | 8.0 | 0.00 | 0.00 | 0.00 | 68 | 1016.6 |
| 20260510071029 | 56 | 51 | 2.0 | 8.0 | 0.00 | 0.00 | 0.00 | 67 | 1016.5 |
| 20260510070540 | 56 | 103 | 3.0 | 8.0 | 0.00 | 0.00 | 0.00 | 67 | 1016.6 |
| 20260510070221 | 56 | 72 | 0.0 | 8.0 | 0.00 | 0.00 | 0.00 | 68 | 1016.7 |
| 20260510070121 | 56 | 44 | 3.0 | 8.0 | 0.00 | 0.00 | 0.00 | 67 | 1016.6 |
| 20260510070029 | 56 | 58 | 1.0 | 7.0 | 0.00 | 0.00 | 0.00 | 68 | 1016.6 |
| 20260510070021 | 56 | 58 | 1.0 | 7.0 | 0.00 | 0.00 | 0.00 | 67 | 1016.8 |
| 20260510065921 | 56 | 103 | 2.0 | 7.0 | 0.00 | 0.00 | 0.00 | 67 | 1016.8 |
| 20260510065822 | 56 | 70 | 2.0 | 7.0 | 0.00 | 0.00 | 0.00 | 68 | 1016.3 |
| 20260510065721 | 56 | 169 | 1.0 | 7.0 | 0.00 | 0.00 | 0.00 | 68 | 1016.6 |
| 20260510065621 | 56 | 83 | 1.0 | 7.0 | 0.00 | 0.00 | 0.00 | 68 | 1016.7 |
| 20260510065530 | 56 | 150 | 2.0 | 7.0 | 0.00 | 0.00 | 0.00 | 68 | 1016.7 |
| 20260510065521 | 56 | 74 | 3.0 | 7.0 | 0.00 | 0.00 | 0.00 | 68 | 1016.6 |
| 20260510065422 | 56 | 125 | 3.0 | 7.0 | 0.00 | 0.00 | 0.00 | 68 | 1016.8 |
| 20260510065357 | 55 | 74 | 0.0 | 7.0 | 0.00 | 0.00 | 0.00 | 70 | 1016.6 |
| 20260510065341 | 55 | 188 | 0.0 | 7.0 | 0.00 | 0.00 | 0.00 | 69 | 1016.6 |
| 20260510065029 | 56 | 69 | 6.0 | 8.0 | 0.00 | 0.00 | 0.00 | 68 | 1016.5 |
| 20260510065022 | 56 | 50 | 2.0 | 8.0 | 0.00 | 0.00 | 0.00 | 68 | 1016.5 |
| 20260510064920 | 56 | 64 | 2.0 | 8.0 | 0.00 | 0.00 | 0.00 | 69 | 1016.5 |
| 20260510064821 | 56 | 65 | 2.0 | 8.0 | 0.00 | 0.00 | 0.00 | 72 | 1016.6 |
| 20260510064721 | 56 | 127 | 1.0 | 8.0 | 0.00 | 0.00 | 0.00 | 71 | 1016.8 |
| 20260510064622 | 55 | 65 | 1.0 | 8.0 | 0.00 | 0.00 | 0.00 | 72 | 1016.5 |
| 20260510064529 | 55 | 175 | 1.0 | 8.0 | 0.00 | 0.00 | 0.00 | 72 | 1016.5 |
| 20260510064421 | 55 | 64 | 1.0 | 8.0 | 0.00 | 0.00 | 0.00 | 72 | 1016.6 |
| 20260510064323 | 55 | 82 | 3.0 | 8.0 | 0.00 | 0.00 | 0.00 | 72 | 1016.3 |
| 20260510064222 | 55 | 71 | 0.0 | 7.0 | 0.00 | 0.00 | 0.00 | 73 | 1016.3 |
| 20260510064123 | 55 | 102 | 0.0 | 7.0 | 0.00 | 0.00 | 0.00 | 74 | 1016.4 |
| 20260510064111 | 54 | 61 | 2.0 | 7.0 | 0.00 | 0.00 | 0.00 | 74 | 1016.4 |
| 20260510064105 | 53 | 64 | 1.0 | 8.0 | 0.00 | 0.00 | 0.00 | 78 | 1016.4 |
| 20260510064059 | 53 | 85 | 1.0 | 6.0 | 0.00 | 0.00 | 0.00 | 79 | 1016.6 |
| 20260510064042 | 55 | 64 | 1.0 | 7.0 | 0.00 | 0.00 | 0.00 | 73 | 1016.4 |
| 20260510064026 | 55 | 110 | 3.0 | 7.0 | 0.00 | 0.00 | 0.00 | 73 | 1016.5 |
| 20260510064010 | 55 | 84 | 1.0 | 7.0 | 0.00 | 0.00 | 0.00 | 74 | 1016.3 |
| 20260510063955 | 54 | 353 | 2.0 | 7.0 | 0.00 | 0.00 | 0.00 | 74 | 1016.7 |
| 20260510063939 | 54 | 59 | 2.0 | 7.0 | 0.00 | 0.00 | 0.00 | 74 | 1016.4 |
| 20260510063712 | 54 | 32 | 4.0 | 7.0 | 0.00 | 0.00 | 0.00 | 74 | 1016.5 |
| 20260510063436 | 55 | 53 | 3.0 | 7.0 | 0.00 | 0.00 | 0.00 | 76 | 1016.5 |
| 20260510063420 | 54 | 57 | 1.0 | 8.0 | 0.00 | 0.00 | 0.00 | 77 | 1016.4 |
| 20260510063142 | 53 | 153 | 0.0 | 8.0 | 0.00 | 0.00 | 0.00 | 76 | 1016.7 |
| 20260510063135 | 53 | 66 | 1.0 | 8.0 | 0.00 | 0.00 | 0.00 | 76 | 1016.4 |
| 20260510063120 | 53 | 96 | 0.0 | 8.0 | 0.00 | 0.00 | 0.00 | 77 | 1016.5 |
| 20260510063104 | 53 | 66 | 4.0 | 8.0 | 0.00 | 0.00 | 0.00 | 77 | 1016.5 |
| 20260510063048 | 53 | 55 | 4.0 | 8.0 | 0.00 | 0.00 | 0.00 | 77 | 1016.6 |
| 20260510062601 | 53 | 134 | 0.0 | 8.0 | 0.00 | 0.00 | 0.00 | 78 | 1016.5 |
| 20260510062545 | 53 | 109 | 2.0 | 8.0 | 0.00 | 0.00 | 0.00 | 77 | 1016.6 |
| 20260510062529 | 53 | 48 | 3.0 | 8.0 | 0.00 | 0.00 | 0.00 | 77 | 1016.5 |
| 20260510062512 | 53 | 87 | 1.0 | 6.0 | 0.00 | 0.00 | 0.00 | 78 | 1016.5 |
| 20260510062020 | 53 | 85 | 1.0 | 6.0 | 0.00 | 0.00 | 0.00 | 79 | 1016.5 |
| 20260510061921 | 53 | 55 | 2.0 | 6.0 | 0.00 | 0.00 | 0.00 | 79 | 1016.7 |
| 20260510061856 | 53 | 69 | 2.0 | 6.0 | 0.00 | 0.00 | 0.00 | 80 | 1016.6 |
| 20260510061840 | 53 | 54 | 1.0 | 4.0 | 0.00 | 0.00 | 0.00 | 80 | 1016.6 |
| 20260510061529 | 53 | 69 | 2.0 | 4.0 | 0.00 | 0.00 | 0.00 | 81 | 1016.7 |
| 20260510061521 | 53 | 57 | 4.0 | 4.0 | 0.00 | 0.00 | 0.00 | 81 | 1016.8 |
| 20260510061422 | 53 | 79 | 2.0 | 7.0 | 0.00 | 0.00 | 0.00 | 81 | 1016.7 |
| 20260510061321 | 53 | 80 | 0.0 | 7.0 | 0.00 | 0.00 | 0.00 | 83 | 1016.7 |
| 20260510061222 | 53 | 117 | 0.0 | 7.0 | 0.00 | 0.00 | 0.00 | 82 | 1016.8 |
| 20260510061206 | 53 | 78 | 1.0 | 7.0 | 0.00 | 0.00 | 0.00 | 82 | 1016.8 |
| 20260510061149 | 53 | 116 | 1.0 | 7.0 | 0.00 | 0.00 | 0.00 | 82 | 1016.8 |
| 20260510061142 | 53 | 174 | 0.0 | 7.0 | 0.00 | 0.00 | 0.00 | 83 | 1016.4 |
| 20260510060822 | 52 | 151 | 0.0 | 7.0 | 0.00 | 0.00 | 0.00 | 84 | 1016.7 |
| 20260510060721 | 52 | 91 | 2.0 | 7.0 | 0.00 | 0.00 | 0.00 | 83 | 1016.7 |
| 20260510060622 | 52 | 44 | 3.0 | 7.0 | 0.00 | 0.00 | 0.00 | 84 | 1016.5 |
| 20260510060529 | 52 | 91 | 1.0 | 7.0 | 0.00 | 0.00 | 0.00 | 84 | 1016.5 |
| 20260510060521 | 52 | 64 | 3.0 | 7.0 | 0.00 | 0.00 | 0.00 | 84 | 1016.6 |
| 20260510060449 | 51 | 126 | 0.0 | 4.0 | 0.00 | 0.00 | 0.00 | 87 | 1016.6 |
| 20260510060445 | 51 | 129 | 0.0 | 2.0 | 0.00 | 0.00 | 0.00 | 89 | 1016.9 |
| 20260510060440 | 51 | 63 | 1.0 | 4.0 | 0.00 | 0.00 | 0.00 | 89 | 1017.0 |
| 20260510060435 | 50 | 77 | 0.0 | 4.0 | 0.00 | 0.00 | 0.00 | 90 | 1016.6 |
| 20260510060428 | 52 | 53 | 4.0 | 7.0 | 0.00 | 0.00 | 0.00 | 84 | 1016.6 |
| 20260510060414 | 52 | 70 | 2.0 | 6.0 | 0.00 | 0.00 | 0.00 | 85 | 1016.5 |
| 20260510060359 | 52 | 61 | 1.0 | 6.0 | 0.00 | 0.00 | 0.00 | 84 | 1016.5 |
| 20260510060343 | 52 | 48 | 0.0 | 6.0 | 0.00 | 0.00 | 0.00 | 86 | 1016.7 |
| 20260510060326 | 52 | 103 | 0.0 | 6.0 | 0.00 | 0.00 | 0.00 | 86 | 1016.7 |
| 20260510060319 | 52 | 103 | 0.0 | 6.0 | 0.00 | 0.00 | 0.00 | 85 | 1016.6 |
| 20260510060042 | 51 | 89 | 0.0 | 6.0 | 0.00 | 0.00 | 0.00 | 86 | 1016.8 |
| 20260510060027 | 51 | 90 | 4.0 | 6.0 | 0.00 | 0.00 | 0.00 | 86 | 1016.6 |
| 20260510060010 | 51 | 119 | 0.0 | 4.0 | 0.00 | 0.00 | 0.00 | 87 | 1016.6 |
| 20260510055742 | 51 | 142 | 0.0 | 4.0 | 0.00 | 0.00 | 0.00 | 87 | 1016.6 |
| 20260510055726 | 52 | 73 | 2.0 | 3.0 | 0.00 | 0.00 | 0.00 | 86 | 1016.6 |
| 20260510055709 | 52 | 49 | 1.0 | 2.0 | 0.00 | 0.00 | 0.00 | 88 | 1016.7 |
| 20260510055653 | 51 | 50 | 1.0 | 2.0 | 0.00 | 0.00 | 0.00 | 89 | 1016.7 |
| 20260510055638 | 51 | 69 | 0.0 | 2.0 | 0.00 | 0.00 | 0.00 | 88 | 1016.9 |
| 20260510055409 | 51 | 118 | 0.0 | 2.0 | 0.00 | 0.00 | 0.00 | 89 | 1016.6 |
| 20260510055354 | 51 | 91 | 0.0 | 2.0 | 0.00 | 0.00 | 0.00 | 88 | 1017.0 |
| 20260510055337 | 51 | 62 | 2.0 | 4.0 | 0.00 | 0.00 | 0.00 | 89 | 1016.9 |
| 20260510055102 | 51 | 60 | 1.0 | 4.0 | 0.00 | 0.00 | 0.00 | 89 | 1017.0 |
| 20260510054835 | 51 | 101 | 0.0 | 4.0 | 0.00 | 0.00 | 0.00 | 89 | 1017.0 |
| 20260510054818 | 51 | 75 | 0.0 | 4.0 | 0.00 | 0.00 | 0.00 | 90 | 1016.8 |
| 20260510054803 | 51 | 79 | 0.0 | 4.0 | 0.00 | 0.00 | 0.00 | 90 | 1016.8 |
| 20260510054747 | 50 | 58 | 0.0 | 4.0 | 0.00 | 0.00 | 0.00 | 90 | 1016.9 |
| 20260510054258 | 50 | 77 | 0.0 | 4.0 | 0.00 | 0.00 | 0.00 | 90 | 1017.0 |
| 20260510054023 | 50 | 110 | 0.0 | 3.0 | 0.00 | 0.00 | 0.00 | 90 | 1017.1 |
| 20260510054008 | 50 | 86 | 0.0 | 3.0 | 0.00 | 0.00 | 0.00 | 91 | 1017.1 |
| 20260510053732 | 50 | 115 | 1.0 | 3.0 | 0.00 | 0.00 | 0.00 | 91 | 1017.1 |
| 20260510053422 | 50 | 72 | 0.0 | 3.0 | 0.00 | 0.00 | 0.00 | 92 | 1017.0 |
| 20260510053410 | 49 | 65 | 1.0 | 3.0 | 0.00 | 0.00 | 0.00 | 92 | 1017.1 |
| 20260510053400 | 49 | 85 | 1.0 | 3.0 | 0.00 | 0.00 | 0.00 | 91 | 1016.8 |
| 20260510053344 | 49 | 79 | 1.0 | 3.0 | 0.00 | 0.00 | 0.00 | 91 | 1017.0 |
| 20260510053327 | 49 | 62 | 2.0 | 3.0 | 0.00 | 0.00 | 0.00 | 92 | 1017.1 |
| 20260510053058 | 49 | 56 | 0.0 | 3.0 | 0.00 | 0.00 | 0.00 | 92 | 1016.9 |
| 20260510053042 | 49 | 58 | 0.0 | 3.0 | 0.00 | 0.00 | 0.00 | 92 | 1017.0 |
| 20260510053025 | 49 | 62 | 1.0 | 3.0 | 0.00 | 0.00 | 0.00 | 92 | 1017.0 |
| 20260510053008 | 49 | 116 | 0.0 | 3.0 | 0.00 | 0.00 | 0.00 | 93 | 1017.1 |
| 20260510052732 | 49 | 133 | 0.0 | 3.0 | 0.00 | 0.00 | 0.00 | 93 | 1016.9 |
| 20260510052448 | 49 | 80 | 0.0 | 3.0 | 0.00 | 0.00 | 0.00 | 93 | 1017.0 |
| 20260510052432 | 49 | 68 | 1.0 | 3.0 | 0.00 | 0.00 | 0.00 | 93 | 1017.1 |
| 20260510052416 | 49 | 57 | 1.0 | 3.0 | 0.00 | 0.00 | 0.00 | 93 | 1017.2 |
| 20260510052400 | 49 | 71 | 0.0 | 3.0 | 0.00 | 0.00 | 0.00 | 93 | 1017.0 |
| 20260510052343 | 49 | 87 | 1.0 | 3.0 | 0.00 | 0.00 | 0.00 | 94 | 1017.0 |
| 20260510052336 | 49 | 87 | 1.0 | 3.0 | 0.00 | 0.00 | 0.00 | 94 | 1017.2 |
| 20260510051841 | 48 | 113 | 0.0 | 2.0 | 0.00 | 0.00 | 0.00 | 95 | 1017.3 |
| 20260510051605 | 48 | 110 | 0.0 | 2.0 | 0.00 | 0.00 | 0.00 | 95 | 1017.1 |
| 20260510051559 | 48 | 64 | 1.0 | 2.0 | 0.00 | 0.00 | 0.00 | 95 | 1017.2 |
| 20260510051542 | 48 | 74 | 1.0 | 2.0 | 0.00 | 0.00 | 0.00 | 95 | 1017.1 |
| 20260510051220 | 47 | 74 | 1.0 | 2.0 | 0.00 | 0.00 | 0.00 | 96 | 1017.3 |
| 20260510051205 | 47 | 128 | 0.0 | 1.0 | 0.00 | 0.00 | 0.00 | 96 | 1017.4 |
| 20260510051148 | 47 | 81 | 0.0 | 1.0 | 0.00 | 0.00 | 0.00 | 96 | 1017.4 |
| 20260510051141 | 47 | 98 | 0.0 | 1.0 | 0.00 | 0.00 | 0.00 | 96 | 1017.3 |
| 20260510050822 | 47 | 104 | 0.0 | 1.0 | 0.00 | 0.00 | 0.00 | 97 | 1017.1 |
| 20260510050721 | 47 | 81 | 0.0 | 1.0 | 0.00 | 0.00 | 0.00 | 97 | 1017.3 |
| 20260510050621 | 47 | 131 | 0.0 | 1.0 | 0.00 | 0.00 | 0.00 | 98 | 1017.2 |
| 20260510050529 | 47 | 88 | 0.0 | 1.0 | 0.00 | 0.00 | 0.00 | 98 | 1017.2 |
| 20260510050521 | 47 | 118 | 0.0 | 1.0 | 0.00 | 0.00 | 0.00 | 98 | 1017.2 |
| 20260510050421 | 46 | 138 | 0.0 | 2.0 | 0.00 | 0.00 | 0.00 | 98 | 1017.4 |
| 20260510050358 | 46 | 155 | 0.0 | 2.0 | 0.00 | 0.00 | 0.00 | 98 | 1017.4 |
| 20260510050341 | 46 | 143 | 0.0 | 2.0 | 0.00 | 0.00 | 0.00 | 98 | 1017.1 |
| 20260510050029 | 46 | 122 | 0.0 | 2.0 | 0.00 | 0.00 | 0.00 | 99 | 1017.3 |
| 20260510050022 | 46 | 122 | 0.0 | 2.0 | 0.00 | 0.00 | 0.00 | 99 | 1017.2 |
| 20260510045921 | 46 | 85 | 0.0 | 2.0 | 0.00 | 0.00 | 0.00 | 99 | 1017.2 |
| 20260510045857 | 46 | 142 | 0.0 | 2.0 | 0.00 | 0.00 | 0.00 | 99 | 1017.2 |
| 20260510045841 | 45 | 122 | 0.0 | 3.0 | 0.00 | 0.00 | 0.00 | 99 | 1017.3 |
| 20260510045604 | 45 | 46 | 2.0 | 3.0 | 0.00 | 0.00 | 0.00 | 100 | 1017.2 |
| 20260510045558 | 45 | 88 | 0.0 | 3.0 | 0.00 | 0.00 | 0.00 | 100 | 1017.1 |
| 20260510045542 | 45 | 60 | 1.0 | 3.0 | 0.00 | 0.00 | 0.00 | 100 | 1017.3 |
| 20260510045253 | 44 | 130 | 0.0 | 2.0 | 0.00 | 0.00 | 0.00 | 100 | 1017.2 |
| 20260510045245 | 45 | 65 | 1.0 | 3.0 | 0.00 | 0.00 | 0.00 | 100 | 1017.1 |
| 20260510045230 | 45 | 106 | 0.0 | 3.0 | 0.00 | 0.00 | 0.00 | 100 | 1017.3 |
| 20260510045211 | 45 | 68 | 0.0 | 3.0 | 0.00 | 0.00 | 0.00 | 100 | 1017.3 |
| 20260510045204 | 45 | 72 | 0.0 | 3.0 | 0.00 | 0.00 | 0.00 | 100 | 1017.3 |
| 20260510045148 | 45 | 74 | 0.0 | 3.0 | 0.00 | 0.00 | 0.00 | 100 | 1017.1 |
| 20260510045132 | 45 | 76 | 1.0 | 3.0 | 0.00 | 0.00 | 0.00 | 100 | 1017.1 |
| 20260510045116 | 45 | 108 | 0.0 | 2.0 | 0.00 | 0.00 | 0.00 | 100 | 1017.3 |
| 20260510045100 | 44 | 69 | 1.0 | 2.0 | 0.00 | 0.00 | 0.00 | 100 | 1017.3 |
| 20260510045044 | 44 | 72 | 0.0 | 2.0 | 0.00 | 0.00 | 0.00 | 100 | 1017.3 |
| 20260510045037 | 44 | 93 | 0.0 | 2.0 | 0.00 | 0.00 | 0.00 | 100 | 1017.2 |
| 20260510044800 | 44 | 76 | 0.0 | 2.0 | 0.00 | 0.00 | 0.00 | 100 | 1017.4 |
| 20260510044524 | 44 | 73 | 0.0 | 2.0 | 0.00 | 0.00 | 0.00 | 100 | 1017.3 |
| 20260510044505 | 44 | 88 | 0.0 | 2.0 | 0.00 | 0.00 | 0.00 | 100 | 1017.3 |
| 20260510044459 | 44 | 88 | 0.0 | 2.0 | 0.00 | 0.00 | 0.00 | 100 | 1017.2 |
| 20260510044442 | 44 | 108 | 0.0 | 2.0 | 0.00 | 0.00 | 0.00 | 100 | 1017.5 |
| 20260510044425 | 44 | 98 | 0.0 | 2.0 | 0.00 | 0.00 | 0.00 | 100 | 1017.3 |
| 20260510044149 | 44 | 112 | 0.0 | 2.0 | 0.00 | 0.00 | 0.00 | 100 | 1017.2 |
| 20260510043922 | 44 | 131 | 0.0 | 2.0 | 0.00 | 0.00 | 0.00 | 100 | 1017.3 |
| 20260510043123 | 44 | 142 | 0.0 | 2.0 | 0.00 | 0.00 | 0.00 | 100 | 1017.3 |
| 20260510043023 | 44 | 131 | 0.0 | 2.0 | 0.00 | 0.00 | 0.00 | 100 | 1017.3 |
| 20260510042921 | 44 | 76 | 0.0 | 2.0 | 0.00 | 0.00 | 0.00 | 100 | 1017.3 |
| 20260510042821 | 43 | 71 | 0.0 | 2.0 | 0.00 | 0.00 | 0.00 | 100 | 1017.4 |
| 20260510042721 | 43 | 79 | 0.0 | 2.0 | 0.00 | 0.00 | 0.00 | 100 | 1017.5 |
| 20260510042621 | 43 | 79 | 1.0 | 2.0 | 0.00 | 0.00 | 0.00 | 100 | 1017.3 |
| 20260510042529 | 43 | 121 | 0.0 | 1.0 | 0.00 | 0.00 | 0.00 | 100 | 1017.3 |
| 20260510042522 | 43 | 124 | 0.0 | 1.0 | 0.00 | 0.00 | 0.00 | 100 | 1017.3 |
| 20260510042422 | 43 | 129 | 0.0 | 1.0 | 0.00 | 0.00 | 0.00 | 100 | 1017.5 |
| 20260510042321 | 43 | 141 | 0.0 | 1.0 | 0.00 | 0.00 | 0.00 | 100 | 1017.4 |
| 20260510042221 | 43 | 139 | 0.0 | 1.0 | 0.00 | 0.00 | 0.00 | 100 | 1017.2 |
| 20260510042120 | 43 | 137 | 0.0 | 1.0 | 0.00 | 0.00 | 0.00 | 100 | 1017.4 |
| 20260510042029 | 43 | 133 | 0.0 | 1.0 | 0.00 | 0.00 | 0.00 | 100 | 1017.4 |
| 20260510042021 | 43 | 133 | 0.0 | 1.0 | 0.00 | 0.00 | 0.00 | 100 | 1017.5 |
| 20260510041921 | 43 | 130 | 0.0 | 1.0 | 0.00 | 0.00 | 0.00 | 100 | 1017.5 |
| 20260510041825 | 43 | 149 | 0.0 | 1.0 | 0.00 | 0.00 | 0.00 | 100 | 1017.5 |
| 20260510041821 | 43 | 150 | 0.0 | 1.0 | 0.00 | 0.00 | 0.00 | 100 | 1017.4 |
| 20260510041805 | 43 | 151 | 0.0 | 1.0 | 0.00 | 0.00 | 0.00 | 100 | 1017.5 |
| 20260510041748 | 43 | 150 | 0.0 | 1.0 | 0.00 | 0.00 | 0.00 | 100 | 1017.5 |
| 20260510041521 | 43 | 148 | 0.0 | 0.0 | 0.00 | 0.00 | 0.00 | 100 | 1017.5 |
| 20260510041421 | 43 | 160 | 0.0 | 0.0 | 0.00 | 0.00 | 0.00 | 100 | 1017.5 |
| 20260510041321 | 43 | 160 | 0.0 | 0.0 | 0.00 | 0.00 | 0.00 | 100 | 1017.7 |
| 20260510041221 | 43 | 159 | 0.0 | 0.0 | 0.00 | 0.00 | 0.00 | 100 | 1017.3 |
| 20260510041123 | 42 | 158 | 0.0 | 0.0 | 0.00 | 0.00 | 0.00 | 100 | 1017.2 |
| 20260510041029 | 42 | 156 | 0.0 | 0.0 | 0.00 | 0.00 | 0.00 | 100 | 1017.2 |
| 20260510041022 | 42 | 156 | 0.0 | 0.0 | 0.00 | 0.00 | 0.00 | 100 | 1017.3 |
| 20260510040921 | 42 | 154 | 0.0 | 0.0 | 0.00 | 0.00 | 0.00 | 100 | 1017.5 |
| 20260510040821 | 42 | 154 | 0.0 | 0.0 | 0.00 | 0.00 | 0.00 | 100 | 1017.1 |
| 20260510040721 | 42 | 158 | 0.0 | 0.0 | 0.00 | 0.00 | 0.00 | 100 | 1017.5 |
| 20260510040621 | 42 | 162 | 0.0 | 0.0 | 0.00 | 0.00 | 0.00 | 100 | 1017.4 |
| 20260510040530 | 42 | 162 | 0.0 | 0.0 | 0.00 | 0.00 | 0.00 | 100 | 1017.4 |
| 20260510040521 | 42 | 162 | 0.0 | 0.0 | 0.00 | 0.00 | 0.00 | 100 | 1017.3 |
| 20260510040421 | 42 | 163 | 0.0 | 0.0 | 0.00 | 0.00 | 0.00 | 100 | 1017.2 |
| 20260510040321 | 42 | 164 | 0.0 | 0.0 | 0.00 | 0.00 | 0.00 | 100 | 1017.5 |
| 20260510040221 | 41 | 165 | 0.0 | 0.0 | 0.00 | 0.00 | 0.00 | 100 | 1017.2 |
| 20260510040121 | 41 | 166 | 0.0 | 0.0 | 0.00 | 0.00 | 0.00 | 100 | 1017.2 |
| 20260510040029 | 41 | 167 | 0.0 | 0.0 | 0.00 | 0.00 | 0.00 | 100 | 1017.2 |
| 20260510040022 | 41 | 167 | 0.0 | 0.0 | 0.00 | 0.00 | 0.00 | 100 | 1017.4 |
| 20260510035922 | 41 | 168 | 0.0 | 0.0 | 0.00 | 0.00 | 0.00 | 100 | 1017.2 |
| 20260510035854 | 41 | 168 | 0.0 | 0.0 | 0.00 | 0.00 | 0.00 | 100 | 1017.3 |
| 20260510035839 | 41 | 168 | 0.0 | 0.0 | 0.00 | 0.00 | 0.00 | 100 | 1017.5 |
| 20260510035824 | 41 | 169 | 0.0 | 0.0 | 0.00 | 0.00 | 0.00 | 100 | 1017.2 |
| 20260510035808 | 41 | 169 | 0.0 | 0.0 | 0.00 | 0.00 | 0.00 | 100 | 1017.2 |
| 20260510035542 | 41 | 169 | 0.0 | 0.0 | 0.00 | 0.00 | 0.00 | 100 | 1017.4 |
| 20260510035221 | 41 | 170 | 0.0 | 0.0 | 0.00 | 0.00 | 0.00 | 100 | 1017.3 |
| 20260510035121 | 41 | 170 | 0.0 | 0.0 | 0.00 | 0.00 | 0.00 | 100 | 1017.2 |
| 20260510035029 | 41 | 170 | 0.0 | 0.0 | 0.00 | 0.00 | 0.00 | 100 | 1017.2 |
| 20260510035021 | 41 | 170 | 0.0 | 0.0 | 0.00 | 0.00 | 0.00 | 100 | 1017.6 |
| 20260510034921 | 41 | 170 | 0.0 | 0.0 | 0.00 | 0.00 | 0.00 | 100 | 1017.3 |
| 20260510034822 | 41 | 170 | 0.0 | 0.0 | 0.00 | 0.00 | 0.00 | 100 | 1017.4 |
| 20260510034722 | 41 | 170 | 0.0 | 0.0 | 0.00 | 0.00 | 0.00 | 100 | 1017.4 |
| 20260510034621 | 41 | 170 | 0.0 | 0.0 | 0.00 | 0.00 | 0.00 | 100 | 1017.4 |
| 20260510034529 | 41 | 170 | 0.0 | 0.0 | 0.00 | 0.00 | 0.00 | 100 | 1017.4 |
| 20260510034521 | 41 | 170 | 0.0 | 0.0 | 0.00 | 0.00 | 0.00 | 100 | 1017.3 |
| 20260510034421 | 41 | 171 | 0.0 | 0.0 | 0.00 | 0.00 | 0.00 | 100 | 1017.3 |
| 20260510034329 | 41 | 170 | 0.0 | 0.0 | 0.00 | 0.00 | 0.00 | 100 | 1017.3 |
| 20260510034324 | 41 | 170 | 0.0 | 0.0 | 0.00 | 0.00 | 0.00 | 100 | 1017.4 |
| 20260510034308 | 41 | 170 | 0.0 | 0.0 | 0.00 | 0.00 | 0.00 | 100 | 1017.5 |
| 20260510034252 | 41 | 170 | 0.0 | 0.0 | 0.00 | 0.00 | 0.00 | 100 | 1017.3 |
| 20260510034021 | 41 | 170 | 0.0 | 0.0 | 0.00 | 0.00 | 0.00 | 100 | 1017.2 |
| 20260510033920 | 41 | 170 | 0.0 | 0.0 | 0.00 | 0.00 | 0.00 | 100 | 1017.3 |
| 20260510033821 | 40 | 171 | 0.0 | 0.0 | 0.00 | 0.00 | 0.00 | 100 | 1017.5 |
| 20260510033804 | 40 | 170 | 0.0 | 0.0 | 0.00 | 0.00 | 0.00 | 100 | 1017.5 |
| 20260510033748 | 40 | 171 | 0.0 | 0.0 | 0.00 | 0.00 | 0.00 | 100 | 1017.6 |
| 20260510033732 | 40 | 171 | 0.0 | 0.0 | 0.00 | 0.00 | 0.00 | 100 | 1017.6 |
| 20260510033456 | 40 | 171 | 0.0 | 0.0 | 0.00 | 0.00 | 0.00 | 100 | 1017.4 |
| 20260510033440 | 40 | 171 | 0.0 | 0.0 | 0.00 | 0.00 | 0.00 | 100 | 1017.5 |
| 20260510033121 | 40 | 171 | 0.0 | 0.0 | 0.00 | 0.00 | 0.00 | 100 | 1017.6 |
| 20260510033029 | 40 | 171 | 0.0 | 0.0 | 0.00 | 0.00 | 0.00 | 100 | 1017.6 |
| 20260510033021 | 40 | 171 | 0.0 | 0.0 | 0.00 | 0.00 | 0.00 | 100 | 1017.6 |
| 20260510032922 | 41 | 171 | 0.0 | 0.0 | 0.00 | 0.00 | 0.00 | 100 | 1017.5 |
| 20260510032821 | 41 | 171 | 0.0 | 0.0 | 0.00 | 0.00 | 0.00 | 100 | 1017.5 |
| 20260510032804 | 41 | 171 | 0.0 | 0.0 | 0.00 | 0.00 | 0.00 | 100 | 1017.3 |
| 20260510032749 | 41 | 171 | 0.0 | 0.0 | 0.00 | 0.00 | 0.00 | 100 | 1017.6 |
| 20260510032733 | 41 | 171 | 0.0 | 0.0 | 0.00 | 0.00 | 0.00 | 100 | 1017.6 |
| 20260510032422 | 41 | 171 | 0.0 | 0.0 | 0.00 | 0.00 | 0.00 | 100 | 1017.6 |
| 20260510032321 | 41 | 171 | 0.0 | 0.0 | 0.00 | 0.00 | 0.00 | 100 | 1017.4 |
| 20260510032221 | 41 | 171 | 0.0 | 0.0 | 0.00 | 0.00 | 0.00 | 100 | 1017.5 |
| 20260510032122 | 41 | 171 | 0.0 | 0.0 | 0.00 | 0.00 | 0.00 | 100 | 1017.6 |
| 20260510032029 | 41 | 171 | 0.0 | 0.0 | 0.00 | 0.00 | 0.00 | 100 | 1017.6 |
| 20260510032021 | 41 | 171 | 0.0 | 0.0 | 0.00 | 0.00 | 0.00 | 100 | 1017.3 |
| 20260510031921 | 41 | 171 | 0.0 | 0.0 | 0.00 | 0.00 | 0.00 | 100 | 1017.5 |
| 20260510031821 | 41 | 171 | 0.0 | 0.0 | 0.00 | 0.00 | 0.00 | 100 | 1017.6 |
| 20260510031721 | 41 | 171 | 0.0 | 0.0 | 0.00 | 0.00 | 0.00 | 100 | 1017.5 |
| 20260510031622 | 41 | 172 | 0.0 | 0.0 | 0.00 | 0.00 | 0.00 | 100 | 1017.4 |
| 20260510031529 | 41 | 171 | 0.0 | 0.0 | 0.00 | 0.00 | 0.00 | 100 | 1017.4 |
| 20260510031520 | 41 | 171 | 0.0 | 0.0 | 0.00 | 0.00 | 0.00 | 100 | 1017.5 |
| 20260510031421 | 41 | 172 | 0.0 | 0.0 | 0.00 | 0.00 | 0.00 | 100 | 1017.5 |
| 20260510031323 | 41 | 172 | 0.0 | 0.0 | 0.00 | 0.00 | 0.00 | 100 | 1017.4 |
| 20260510031220 | 41 | 172 | 0.0 | 0.0 | 0.00 | 0.00 | 0.00 | 100 | 1017.5 |
| 20260510031122 | 41 | 172 | 0.0 | 0.0 | 0.00 | 0.00 | 0.00 | 100 | 1017.5 |
| 20260510031105 | 41 | 172 | 0.0 | 0.0 | 0.00 | 0.00 | 0.00 | 100 | 1017.5 |
| 20260510031059 | 41 | 172 | 0.0 | 0.0 | 0.00 | 0.00 | 0.00 | 100 | 1017.6 |
| 20260510031042 | 41 | 172 | 0.0 | 0.0 | 0.00 | 0.00 | 0.00 | 100 | 1017.6 |
| 20260510030800 | 41 | 172 | 0.0 | 0.0 | 0.00 | 0.00 | 0.00 | 100 | 1017.7 |
| 20260510030744 | 41 | 172 | 0.0 | 0.0 | 0.00 | 0.00 | 0.00 | 100 | 1017.5 |
| 20260510030729 | 41 | 172 | 0.0 | 0.0 | 0.00 | 0.00 | 0.00 | 100 | 1017.5 |
| 20260510030722 | 41 | 172 | 0.0 | 0.0 | 0.00 | 0.00 | 0.00 | 100 | 1017.5 |
| 20260510030705 | 41 | 172 | 0.0 | 0.0 | 0.00 | 0.00 | 0.00 | 100 | 1017.4 |
| 20260510030428 | 41 | 172 | 0.0 | 0.0 | 0.00 | 0.00 | 0.00 | 100 | 1017.5 |
| 20260510030412 | 41 | 172 | 0.0 | 0.0 | 0.00 | 0.00 | 0.00 | 100 | 1017.6 |
| 20260510030354 | 41 | 172 | 0.0 | 0.0 | 0.00 | 0.00 | 0.00 | 100 | 1017.6 |
| 20260510025821 | 40 | 172 | 0.0 | 0.0 | 0.00 | 0.00 | 0.00 | 100 | 1017.7 |
| 20260510025804 | 40 | 172 | 0.0 | 0.0 | 0.00 | 0.00 | 0.00 | 100 | 1017.4 |
| 20260510025747 | 40 | 171 | 0.0 | 0.0 | 0.00 | 0.00 | 0.00 | 100 | 1017.4 |
| 20260510025731 | 40 | 172 | 0.0 | 0.0 | 0.00 | 0.00 | 0.00 | 100 | 1017.4 |
| 20260510025434 | 40 | 172 | 0.0 | 0.0 | 0.00 | 0.00 | 0.00 | 100 | 1017.5 |
| 20260510025419 | 40 | 172 | 0.0 | 0.0 | 0.00 | 0.00 | 0.00 | 100 | 1017.5 |
| 20260510025404 | 40 | 172 | 0.0 | 0.0 | 0.00 | 0.00 | 0.00 | 100 | 1017.4 |
| 20260510025120 | 40 | 172 | 0.0 | 0.0 | 0.00 | 0.00 | 0.00 | 100 | 1017.3 |
| 20260510025104 | 40 | 172 | 0.0 | 0.0 | 0.00 | 0.00 | 0.00 | 100 | 1017.4 |
| 20260510025050 | 40 | 172 | 0.0 | 0.0 | 0.00 | 0.00 | 0.00 | 100 | 1017.4 |
| 20260510025034 | 40 | 172 | 0.0 | 0.0 | 0.00 | 0.00 | 0.00 | 100 | 1017.4 |
| 20260510025018 | 40 | 172 | 0.0 | 0.0 | 0.00 | 0.00 | 0.00 | 100 | 1017.4 |
| 20260510025003 | 40 | 172 | 0.0 | 0.0 | 0.00 | 0.00 | 0.00 | 100 | 1017.4 |
| 20260510024209 | 40 | 172 | 0.0 | 0.0 | 0.00 | 0.00 | 0.00 | 100 | 1017.6 |
| 20260510024115 | 40 | 172 | 0.0 | 0.0 | 0.00 | 0.00 | 0.00 | 100 | 1017.4 |
| 20260510024058 | 40 | 172 | 0.0 | 0.0 | 0.00 | 0.00 | 0.00 | 100 | 1017.4 |
| 20260510024050 | 40 | 172 | 0.0 | 0.0 | 0.00 | 0.00 | 0.00 | 100 | 1017.5 |
| 20260510024035 | 40 | 172 | 0.0 | 0.0 | 0.00 | 0.00 | 0.00 | 100 | 1017.8 |
| 20260510023711 | 40 | 172 | 0.0 | 0.0 | 0.00 | 0.00 | 0.00 | 100 | 1017.5 |
| 20260510023608 | 40 | 172 | 0.0 | 0.0 | 0.00 | 0.00 | 0.00 | 100 | 1017.8 |
| 20260510023530 | 40 | 172 | 0.0 | 0.0 | 0.00 | 0.00 | 0.00 | 100 | 1017.8 |
| 20260510023509 | 40 | 172 | 0.0 | 0.0 | 0.00 | 0.00 | 0.00 | 100 | 1017.4 |
| 20260510023409 | 40 | 172 | 0.0 | 0.0 | 0.00 | 0.00 | 0.00 | 100 | 1017.5 |
| 20260510023343 | 40 | 172 | 0.0 | 0.0 | 0.00 | 0.00 | 0.00 | 100 | 1017.4 |
| 20260510023328 | 40 | 172 | 0.0 | 0.0 | 0.00 | 0.00 | 0.00 | 100 | 1017.4 |
| 20260510023031 | 40 | 172 | 0.0 | 0.0 | 0.00 | 0.00 | 0.00 | 100 | 1017.3 |
| 20260510023010 | 40 | 172 | 0.0 | 0.0 | 0.00 | 0.00 | 0.00 | 100 | 1017.4 |
| 20260510022910 | 40 | 172 | 0.0 | 0.0 | 0.00 | 0.00 | 0.00 | 100 | 1017.4 |
| 20260510022849 | 39 | 172 | 0.0 | 0.0 | 0.00 | 0.00 | 0.00 | 100 | 1017.4 |
| 20260510022844 | 39 | 172 | 0.0 | 0.0 | 0.00 | 0.00 | 0.00 | 100 | 1017.6 |
| 20260510022840 | 40 | 172 | 0.0 | 0.0 | 0.00 | 0.00 | 0.00 | 100 | 1017.7 |
| 20260510022832 | 39 | 172 | 0.0 | 0.0 | 0.00 | 0.00 | 0.00 | 100 | 1017.4 |
| 20260510022817 | 39 | 172 | 0.0 | 0.0 | 0.00 | 0.00 | 0.00 | 100 | 1017.7 |
| 20260510022801 | 39 | 172 | 0.0 | 0.0 | 0.00 | 0.00 | 0.00 | 100 | 1017.4 |
| 20260510022535 | 39 | 172 | 0.0 | 0.0 | 0.00 | 0.00 | 0.00 | 100 | 1017.4 |
| 20260510022518 | 39 | 172 | 0.0 | 0.0 | 0.00 | 0.00 | 0.00 | 100 | 1017.5 |
| 20260510022501 | 39 | 172 | 0.0 | 0.0 | 0.00 | 0.00 | 0.00 | 100 | 1017.5 |
| 20260510022444 | 39 | 172 | 0.0 | 0.0 | 0.00 | 0.00 | 0.00 | 100 | 1017.7 |
| 20260510022429 | 39 | 172 | 0.0 | 0.0 | 0.00 | 0.00 | 0.00 | 100 | 1017.6 |
| 20260510022200 | 39 | 172 | 0.0 | 0.0 | 0.00 | 0.00 | 0.00 | 100 | 1017.6 |
| 20260510022144 | 39 | 172 | 0.0 | 0.0 | 0.00 | 0.00 | 0.00 | 100 | 1017.6 |
| 20260510021909 | 40 | 172 | 0.0 | 0.0 | 0.00 | 0.00 | 0.00 | 100 | 1017.7 |
| 20260510021855 | 40 | 172 | 0.0 | 0.0 | 0.00 | 0.00 | 0.00 | 100 | 1017.7 |
| 20260510021629 | 40 | 172 | 0.0 | 0.0 | 0.00 | 0.00 | 0.00 | 100 | 1017.7 |
| 20260510021309 | 40 | 172 | 0.0 | 0.0 | 0.00 | 0.00 | 0.00 | 100 | 1017.6 |
| 20260510021210 | 40 | 172 | 0.0 | 0.0 | 0.00 | 0.00 | 0.00 | 100 | 1017.8 |
| 20260510021110 | 40 | 172 | 0.0 | 0.0 | 0.00 | 0.00 | 0.00 | 100 | 1017.6 |
| 20260510021054 | 40 | 172 | 0.0 | 0.0 | 0.00 | 0.00 | 0.00 | 100 | 1017.6 |
| 20260510021046 | 40 | 172 | 0.0 | 0.0 | 0.00 | 0.00 | 0.00 | 100 | 1017.8 |
| 20260510021030 | 40 | 172 | 0.0 | 0.0 | 0.00 | 0.00 | 0.00 | 100 | 1017.7 |
| 20260510020708 | 40 | 172 | 0.0 | 0.0 | 0.00 | 0.00 | 0.00 | 100 | 1017.7 |
| 20260510020609 | 40 | 172 | 0.0 | 0.0 | 0.00 | 0.00 | 0.00 | 100 | 1017.5 |
| 20260510020529 | 40 | 172 | 0.0 | 0.0 | 0.00 | 0.00 | 0.00 | 100 | 1017.5 |
| 20260510020517 | 40 | 172 | 0.0 | 0.0 | 0.00 | 0.00 | 0.00 | 100 | 1017.7 |
| 20260510020512 | 39 | 172 | 0.0 | 0.0 | 0.00 | 0.00 | 0.00 | 100 | 1017.7 |
| 20260510020501 | 39 | 172 | 0.0 | 0.0 | 0.00 | 0.00 | 0.00 | 100 | 1017.7 |
| 20260510020451 | 39 | 172 | 0.0 | 0.0 | 0.00 | 0.00 | 0.00 | 100 | 1017.5 |
| 20260510020435 | 39 | 172 | 0.0 | 0.0 | 0.00 | 0.00 | 0.00 | 100 | 1017.7 |
| 20260510020418 | 39 | 172 | 0.0 | 0.0 | 0.00 | 0.00 | 0.00 | 100 | 1017.7 |
| 20260510020402 | 39 | 172 | 0.0 | 0.0 | 0.00 | 0.00 | 0.00 | 100 | 1017.7 |
| 20260510020133 | 39 | 172 | 0.0 | 0.0 | 0.00 | 0.00 | 0.00 | 100 | 1017.6 |
| 20260510020118 | 39 | 172 | 0.0 | 0.0 | 0.00 | 0.00 | 0.00 | 100 | 1017.7 |
| 20260510015610 | 40 | 172 | 0.0 | 0.0 | 0.00 | 0.00 | 0.00 | 100 | 1017.9 |
| 20260510015602 | 40 | 172 | 0.0 | 0.0 | 0.00 | 0.00 | 0.00 | 100 | 1017.8 |
| 20260510015548 | 40 | 172 | 0.0 | 0.0 | 0.00 | 0.00 | 0.00 | 100 | 1017.8 |
| 20260510015323 | 40 | 172 | 0.0 | 0.0 | 0.00 | 0.00 | 0.00 | 100 | 1017.7 |
| 20260510015307 | 40 | 172 | 0.0 | 0.0 | 0.00 | 0.00 | 0.00 | 100 | 1017.9 |
| 20260510015251 | 40 | 172 | 0.0 | 0.0 | 0.00 | 0.00 | 0.00 | 100 | 1017.7 |
| 20260510015009 | 40 | 172 | 0.0 | 0.0 | 0.00 | 0.00 | 0.00 | 100 | 1017.7 |
| 20260510014910 | 40 | 172 | 0.0 | 0.0 | 0.00 | 0.00 | 0.00 | 100 | 1017.9 |
| 20260510014824 | 40 | 172 | 0.0 | 0.0 | 0.00 | 0.00 | 0.00 | 100 | 1017.8 |
| 20260510014819 | 40 | 172 | 0.0 | 0.0 | 0.00 | 0.00 | 0.00 | 100 | 1017.8 |
| 20260510014803 | 40 | 172 | 0.0 | 0.0 | 0.00 | 0.00 | 0.00 | 100 | 1017.8 |
| 20260510014747 | 40 | 172 | 0.0 | 0.0 | 0.00 | 0.00 | 0.00 | 100 | 1017.8 |
| 20260510014509 | 40 | 172 | 0.0 | 0.0 | 0.00 | 0.00 | 0.00 | 100 | 1017.7 |
| 20260510014408 | 40 | 172 | 0.0 | 0.0 | 0.00 | 0.00 | 0.00 | 100 | 1018.0 |
| 20260510014309 | 40 | 172 | 0.0 | 0.0 | 0.00 | 0.00 | 0.00 | 100 | 1017.8 |
| 20260510014209 | 40 | 172 | 0.0 | 0.0 | 0.00 | 0.00 | 0.00 | 100 | 1017.9 |
| 20260510014110 | 40 | 172 | 0.0 | 0.0 | 0.00 | 0.00 | 0.00 | 100 | 1017.6 |
| 20260510014029 | 40 | 172 | 0.0 | 0.0 | 0.00 | 0.00 | 0.00 | 100 | 1017.6 |
| 20260510014009 | 40 | 172 | 0.0 | 0.0 | 0.00 | 0.00 | 0.00 | 100 | 1017.8 |
| 20260510013908 | 40 | 172 | 0.0 | 0.0 | 0.00 | 0.00 | 0.00 | 100 | 1017.6 |
| 20260510013757 | 40 | 172 | 0.0 | 0.0 | 0.00 | 0.00 | 0.00 | 100 | 1017.8 |
| 20260510013738 | 40 | 172 | 0.0 | 0.0 | 0.00 | 0.00 | 0.00 | 100 | 1017.9 |
| 20260510013710 | 40 | 172 | 0.0 | 0.0 | 0.00 | 0.00 | 0.00 | 100 | 1017.8 |
| 20260510013434 | 40 | 172 | 0.0 | 0.0 | 0.00 | 0.00 | 0.00 | 100 | 1017.6 |
| 20260510013418 | 40 | 172 | 0.0 | 0.0 | 0.00 | 0.00 | 0.00 | 100 | 1017.7 |
| 20260510013127 | 40 | 172 | 0.0 | 0.0 | 0.00 | 0.00 | 0.00 | 100 | 1017.6 |
| 20260510013118 | 40 | 172 | 0.0 | 0.0 | 0.00 | 0.00 | 0.00 | 100 | 1018.0 |
| 20260510012757 | 40 | 172 | 0.0 | 0.0 | 0.00 | 0.00 | 0.00 | 100 | 1017.8 |
| 20260510012658 | 40 | 172 | 0.0 | 0.0 | 0.00 | 0.00 | 0.00 | 100 | 1017.8 |
| 20260510012529 | 40 | 172 | 0.0 | 0.0 | 0.00 | 0.00 | 0.00 | 100 | 1017.9 |
| 20260510012457 | 40 | 172 | 0.0 | 0.0 | 0.00 | 0.00 | 0.00 | 100 | 1017.9 |
| 20260510012357 | 40 | 172 | 0.0 | 0.0 | 0.00 | 0.00 | 0.00 | 100 | 1017.9 |
| 20260510012257 | 41 | 172 | 0.0 | 0.0 | 0.00 | 0.00 | 0.00 | 100 | 1018.0 |
| 20260510012158 | 41 | 172 | 0.0 | 0.0 | 0.00 | 0.00 | 0.00 | 100 | 1017.8 |
| 20260510012029 | 41 | 172 | 0.0 | 0.0 | 0.00 | 0.00 | 0.00 | 100 | 1017.7 |
| 20260510011956 | 41 | 172 | 0.0 | 0.0 | 0.00 | 0.00 | 0.00 | 100 | 1017.8 |
| 20260510011858 | 41 | 172 | 0.0 | 0.0 | 0.00 | 0.00 | 0.00 | 100 | 1017.8 |
| 20260510011757 | 41 | 172 | 0.0 | 0.0 | 0.00 | 0.00 | 0.00 | 100 | 1017.7 |
| 20260510011657 | 41 | 172 | 0.0 | 0.0 | 0.00 | 0.00 | 0.00 | 100 | 1017.8 |
| 20260510011626 | 41 | 172 | 0.0 | 0.0 | 0.00 | 0.00 | 0.00 | 100 | 1018.2 |
| 20260510011617 | 41 | 172 | 0.0 | 0.0 | 0.00 | 0.00 | 0.00 | 100 | 1017.7 |
| 20260510011259 | 41 | 172 | 0.0 | 0.0 | 0.00 | 0.00 | 0.00 | 100 | 1017.7 |
| 20260510011244 | 41 | 172 | 0.0 | 0.0 | 0.00 | 0.00 | 0.00 | 100 | 1017.9 |
| 20260510011212 | 41 | 172 | 0.0 | 0.0 | 0.00 | 0.00 | 0.00 | 100 | 1018.0 |
| 20260510010859 | 41 | 172 | 0.0 | 0.0 | 0.00 | 0.00 | 0.00 | 100 | 1017.6 |
| 20260510010757 | 41 | 172 | 0.0 | 0.0 | 0.00 | 0.00 | 0.00 | 100 | 1018.0 |
| 20260510010656 | 41 | 172 | 0.0 | 0.0 | 0.00 | 0.00 | 0.00 | 100 | 1018.0 |
| 20260510010529 | 41 | 172 | 0.0 | 0.0 | 0.00 | 0.00 | 0.00 | 100 | 1018.0 |
| 20260510010445 | 41 | 172 | 0.0 | 0.0 | 0.00 | 0.00 | 0.00 | 100 | 1017.8 |
| 20260510010345 | 41 | 172 | 0.0 | 0.0 | 0.00 | 0.00 | 0.00 | 100 | 1017.8 |
| 20260510010244 | 41 | 172 | 0.0 | 0.0 | 0.00 | 0.00 | 0.00 | 100 | 1018.0 |
| 20260510010145 | 41 | 172 | 0.0 | 0.0 | 0.00 | 0.00 | 0.00 | 100 | 1018.0 |
| 20260510010029 | 41 | 172 | 0.0 | 0.0 | 0.00 | 0.00 | 0.00 | 100 | 1018.1 |
| 20260510010013 | 41 | 172 | 0.0 | 0.0 | 0.00 | 0.00 | 0.00 | 100 | 1017.9 |
| 20260510005953 | 41 | 172 | 0.0 | 0.0 | 0.00 | 0.00 | 0.00 | 100 | 1017.9 |
| 20260510005633 | 42 | 172 | 0.0 | 0.0 | 0.00 | 0.00 | 0.00 | 100 | 1017.9 |
| 20260510005532 | 42 | 172 | 0.0 | 0.0 | 0.00 | 0.00 | 0.00 | 100 | 1017.8 |
| 20260510005433 | 42 | 172 | 0.0 | 0.0 | 0.00 | 0.00 | 0.00 | 100 | 1018.1 |
| 20260510005333 | 42 | 172 | 0.0 | 0.0 | 0.00 | 0.00 | 0.00 | 100 | 1017.9 |
| 20260510005234 | 42 | 172 | 0.0 | 0.0 | 0.00 | 0.00 | 0.00 | 100 | 1017.8 |
| 20260510005133 | 42 | 172 | 0.0 | 0.0 | 0.00 | 0.00 | 0.00 | 100 | 1017.7 |
| 20260510005030 | 41 | 172 | 0.0 | 0.0 | 0.00 | 0.00 | 0.00 | 100 | 1018.0 |
| 20260510004215 | 41 | 172 | 0.0 | 0.0 | 0.00 | 0.00 | 0.00 | 100 | 1018.1 |
| 20260510004116 | 41 | 172 | 0.0 | 0.0 | 0.00 | 0.00 | 0.00 | 100 | 1018.0 |
| 20260510004103 | 41 | 172 | 0.0 | 0.0 | 0.00 | 0.00 | 0.00 | 100 | 1018.0 |
| 20260510004051 | 41 | 172 | 0.0 | 0.0 | 0.00 | 0.00 | 0.00 | 100 | 1017.8 |
| 20260510004036 | 41 | 172 | 0.0 | 0.0 | 0.00 | 0.00 | 0.00 | 100 | 1017.7 |
| 20260510003715 | 41 | 172 | 0.0 | 0.0 | 0.00 | 0.00 | 0.00 | 100 | 1018.1 |
| 20260510003658 | 41 | 172 | 0.0 | 0.0 | 0.00 | 0.00 | 0.00 | 100 | 1018.1 |
| 20260510003647 | 42 | 172 | 0.0 | 0.0 | 0.00 | 0.00 | 0.00 | 100 | 1018.1 |
| 20260510003635 | 42 | 172 | 0.0 | 0.0 | 0.00 | 0.00 | 0.00 | 100 | 1017.9 |
| 20260510003315 | 42 | 172 | 0.0 | 0.0 | 0.00 | 0.00 | 0.00 | 100 | 1018.1 |
| 20260510003214 | 42 | 172 | 0.0 | 0.0 | 0.00 | 0.00 | 0.00 | 100 | 1018.1 |
| 20260510003115 | 42 | 172 | 0.0 | 0.0 | 0.00 | 0.00 | 0.00 | 100 | 1018.2 |
| 20260510003100 | 42 | 172 | 0.0 | 0.0 | 0.00 | 0.00 | 0.00 | 100 | 1018.2 |
| 20260510003015 | 42 | 172 | 0.0 | 0.0 | 0.00 | 0.00 | 0.00 | 100 | 1018.1 |
| 20260510002955 | 42 | 172 | 0.0 | 0.0 | 0.00 | 0.00 | 0.00 | 100 | 1018.0 |
| 20260510002939 | 42 | 172 | 0.0 | 0.0 | 0.00 | 0.00 | 0.00 | 100 | 1018.0 |
| 20260510002924 | 43 | 172 | 0.0 | 0.0 | 0.00 | 0.00 | 0.00 | 100 | 1018.0 |
| 20260510002652 | 43 | 172 | 0.0 | 0.0 | 0.00 | 0.00 | 0.00 | 100 | 1018.1 |
| 20260510002641 | 43 | 172 | 0.0 | 0.0 | 0.00 | 0.00 | 0.00 | 100 | 1018.0 |
| 20260510002624 | 43 | 172 | 0.0 | 0.0 | 0.00 | 0.00 | 0.00 | 100 | 1018.1 |
| 20260510002607 | 43 | 172 | 0.0 | 0.0 | 0.00 | 0.00 | 0.00 | 100 | 1018.2 |
| 20260510002332 | 43 | 172 | 0.0 | 0.0 | 0.00 | 0.00 | 0.00 | 100 | 1018.2 |
| 20260510002319 | 43 | 172 | 0.0 | 0.0 | 0.00 | 0.00 | 0.00 | 100 | 1018.2 |
| 20260510002255 | 43 | 171 | 0.0 | 0.0 | 0.00 | 0.00 | 0.00 | 100 | 1018.2 |
| 20260510002239 | 43 | 171 | 0.0 | 0.0 | 0.00 | 0.00 | 0.00 | 100 | 1018.1 |
| 20260510002003 | 43 | 172 | 0.0 | 0.0 | 0.00 | 0.00 | 0.00 | 100 | 1018.2 |
| 20260510001725 | 43 | 172 | 0.0 | 0.0 | 0.00 | 0.00 | 0.00 | 100 | 1018.4 |
| 20260510001714 | 43 | 172 | 0.0 | 0.0 | 0.00 | 0.00 | 0.00 | 100 | 1018.2 |
| 20260510001658 | 43 | 172 | 0.0 | 0.0 | 0.00 | 0.00 | 0.00 | 100 | 1018.3 |
| 20260510001125 | 43 | 172 | 0.0 | 0.0 | 0.00 | 0.00 | 0.00 | 100 | 1018.2 |
| 20260510001111 | 43 | 172 | 0.0 | 0.0 | 0.00 | 0.00 | 0.00 | 100 | 1018.2 |
| 20260510001015 | 43 | 172 | 0.0 | 0.0 | 0.00 | 0.00 | 0.00 | 100 | 1018.1 |
| 20260510000916 | 43 | 172 | 0.0 | 0.0 | 0.00 | 0.00 | 0.00 | 100 | 1018.2 |
| 20260510000848 | 43 | 172 | 0.0 | 0.0 | 0.00 | 0.00 | 0.00 | 100 | 1018.1 |
| 20260510000832 | 43 | 172 | 0.0 | 0.0 | 0.00 | 0.00 | 0.00 | 100 | 1018.1 |
| 20260510000816 | 43 | 172 | 0.0 | 0.0 | 0.00 | 0.00 | 0.00 | 100 | 1018.2 |
| 20260510000804 | 43 | 172 | 0.0 | 0.0 | 0.00 | 0.00 | 0.00 | 100 | 1018.2 |
| 20260510000754 | 43 | 172 | 0.0 | 0.0 | 0.00 | 0.00 | 0.00 | 100 | 1018.1 |
| 20260510000215 | 43 | 172 | 0.0 | 0.0 | 0.00 | 0.00 | 0.00 | 100 | 1018.3 |
| 20260510000116 | 43 | 172 | 0.0 | 0.0 | 0.00 | 0.00 | 0.00 | 100 | 1018.2 |
| 20260510000052 | 43 | 172 | 0.0 | 0.0 | 0.00 | 0.00 | 0.00 | 100 | 1018.3 |
| 20260510000036 | 42 | 172 | 0.0 | 0.0 | 0.00 | 0.00 | 0.00 | 100 | 1018.3 |
| 20260509235715 | 42 | 172 | 0.0 | 0.0 | 0.00 | 0.00 | 0.00 | 100 | 1018.3 |
| 20260509235616 | 42 | 172 | 0.0 | 0.0 | 0.00 | 0.00 | 0.00 | 100 | 1018.5 |
| 20260509235559 | 42 | 172 | 0.0 | 0.0 | 0.00 | 0.00 | 0.00 | 100 | 1018.5 |
| 20260509235516 | 42 | 172 | 0.0 | 0.0 | 0.00 | 0.00 | 0.00 | 100 | 1018.4 |
| 20260509235416 | 42 | 172 | 0.0 | 0.0 | 0.00 | 0.00 | 0.00 | 100 | 1018.1 |
| 20260509235316 | 42 | 172 | 0.0 | 0.0 | 0.00 | 0.00 | 0.00 | 100 | 1018.3 |
| 20260509235215 | 42 | 172 | 0.0 | 0.0 | 0.00 | 0.00 | 0.00 | 100 | 1018.2 |
| 20260509235115 | 42 | 172 | 0.0 | 0.0 | 0.00 | 0.00 | 0.00 | 100 | 1018.4 |
| 20260509235100 | 42 | 172 | 0.0 | 0.0 | 0.00 | 0.00 | 0.00 | 100 | 1018.4 |
| 20260509235017 | 42 | 172 | 0.0 | 0.0 | 0.00 | 0.00 | 0.00 | 100 | 1018.3 |
| 20260509234915 | 42 | 172 | 0.0 | 0.0 | 0.00 | 0.00 | 0.00 | 100 | 1018.3 |
| 20260509234816 | 42 | 172 | 0.0 | 0.0 | 0.00 | 0.00 | 0.00 | 100 | 1018.3 |
| 20260509234715 | 42 | 172 | 0.0 | 0.0 | 0.00 | 0.00 | 0.00 | 100 | 1018.3 |
| 20260509234616 | 42 | 172 | 0.0 | 0.0 | 0.00 | 0.00 | 0.00 | 100 | 1018.3 |
| 20260509234559 | 42 | 172 | 0.0 | 0.0 | 0.00 | 0.00 | 0.00 | 100 | 1018.3 |
| 20260509234515 | 42 | 172 | 0.0 | 0.0 | 0.00 | 0.00 | 0.00 | 100 | 1018.5 |
| 20260509234453 | 42 | 172 | 0.0 | 0.0 | 0.00 | 0.00 | 0.00 | 100 | 1018.3 |
| 20260509234437 | 42 | 172 | 0.0 | 0.0 | 0.00 | 0.00 | 0.00 | 100 | 1018.3 |
| 20260509234421 | 42 | 172 | 0.0 | 0.0 | 0.00 | 0.00 | 0.00 | 100 | 1018.5 |
| 20260509234406 | 42 | 172 | 0.0 | 0.0 | 0.00 | 0.00 | 0.00 | 100 | 1018.3 |
| 20260509234351 | 42 | 172 | 0.0 | 0.0 | 0.00 | 0.00 | 0.00 | 100 | 1018.3 |
| 20260509233837 | 43 | 172 | 0.0 | 0.0 | 0.00 | 0.00 | 0.00 | 100 | 1018.4 |
| 20260509233830 | 42 | 172 | 0.0 | 0.0 | 0.00 | 0.00 | 0.00 | 100 | 1018.3 |
| 20260509233815 | 42 | 172 | 0.0 | 0.0 | 0.00 | 0.00 | 0.00 | 100 | 1018.3 |
| 20260509233759 | 42 | 172 | 0.0 | 0.0 | 0.00 | 0.00 | 0.00 | 100 | 1018.3 |
| 20260509233748 | 42 | 172 | 0.0 | 0.0 | 0.00 | 0.00 | 0.00 | 100 | 1018.3 |
| 20260509233737 | 42 | 172 | 0.0 | 0.0 | 0.00 | 0.00 | 0.00 | 100 | 1018.2 |
| 20260509233721 | 42 | 172 | 0.0 | 0.0 | 0.00 | 0.00 | 0.00 | 100 | 1018.4 |
| 20260509233445 | 42 | 172 | 0.0 | 0.0 | 0.00 | 0.00 | 0.00 | 100 | 1018.2 |
| 20260509233428 | 43 | 172 | 0.0 | 0.0 | 0.00 | 0.00 | 0.00 | 100 | 1018.4 |
| 20260509233415 | 43 | 172 | 0.0 | 0.0 | 0.00 | 0.00 | 0.00 | 100 | 1018.4 |
| 20260509233143 | 43 | 172 | 0.0 | 0.0 | 0.00 | 0.00 | 0.00 | 100 | 1018.4 |
| 20260509233128 | 43 | 172 | 0.0 | 0.0 | 0.00 | 0.00 | 0.00 | 100 | 1018.3 |
| 20260509232636 | 43 | 172 | 0.0 | 0.0 | 0.00 | 0.00 | 0.00 | 100 | 1018.4 |
| 20260509232626 | 43 | 172 | 0.0 | 0.0 | 0.00 | 0.00 | 0.00 | 100 | 1018.5 |
| 20260509232610 | 43 | 172 | 0.0 | 0.0 | 0.00 | 0.00 | 0.00 | 100 | 1018.3 |
| 20260509232553 | 43 | 172 | 0.0 | 0.0 | 0.00 | 0.00 | 0.00 | 100 | 1018.4 |
| 20260509232538 | 43 | 172 | 0.0 | 0.0 | 0.00 | 0.00 | 0.00 | 100 | 1018.5 |
| 20260509232016 | 43 | 172 | 0.0 | 0.0 | 0.00 | 0.00 | 0.00 | 100 | 1018.4 |
| 20260509231915 | 43 | 172 | 0.0 | 0.0 | 0.00 | 0.00 | 0.00 | 100 | 1018.3 |
| 20260509231815 | 43 | 172 | 0.0 | 0.0 | 0.00 | 0.00 | 0.00 | 100 | 1018.5 |
| 20260509231716 | 43 | 172 | 0.0 | 0.0 | 0.00 | 0.00 | 0.00 | 100 | 1018.3 |
| 20260509231657 | 43 | 172 | 0.0 | 0.0 | 0.00 | 0.00 | 0.00 | 100 | 1018.5 |
| 20260509231645 | 43 | 172 | 0.0 | 0.0 | 0.00 | 0.00 | 0.00 | 100 | 1018.5 |
| 20260509231635 | 43 | 172 | 0.0 | 0.0 | 0.00 | 0.00 | 0.00 | 100 | 1018.3 |
| 20260509231351 | 43 | 172 | 0.0 | 0.0 | 0.00 | 0.00 | 0.00 | 100 | 1018.2 |
| 20260509231336 | 43 | 172 | 0.0 | 0.0 | 0.00 | 0.00 | 0.00 | 100 | 1018.4 |
| 20260509231100 | 43 | 172 | 0.0 | 0.0 | 0.00 | 0.00 | 0.00 | 100 | 1018.5 |
| 20260509231015 | 43 | 172 | 0.0 | 0.0 | 0.00 | 0.00 | 0.00 | 100 | 1018.7 |
| 20260509230950 | 43 | 172 | 0.0 | 0.0 | 0.00 | 0.00 | 0.00 | 100 | 1018.4 |
| 20260509230934 | 43 | 172 | 0.0 | 0.0 | 0.00 | 0.00 | 0.00 | 100 | 1018.5 |
| 20260509230615 | 43 | 172 | 0.0 | 0.0 | 0.00 | 0.00 | 0.00 | 100 | 1018.7 |
| 20260509230537 | 43 | 172 | 0.0 | 0.0 | 0.00 | 0.00 | 0.00 | 100 | 1018.7 |
| 20260509230521 | 43 | 172 | 0.0 | 0.0 | 0.00 | 0.00 | 0.00 | 100 | 1018.8 |
| 20260509230506 | 43 | 172 | 0.0 | 0.0 | 0.00 | 0.00 | 0.00 | 100 | 1018.7 |
| 20260509230230 | 43 | 172 | 0.0 | 0.0 | 0.00 | 0.00 | 0.00 | 100 | 1018.4 |
| 20260509230219 | 43 | 172 | 0.0 | 0.0 | 0.00 | 0.00 | 0.00 | 100 | 1018.4 |
| 20260509230208 | 43 | 172 | 0.0 | 0.0 | 0.00 | 0.00 | 0.00 | 100 | 1018.7 |
| 20260509230154 | 43 | 172 | 0.0 | 0.0 | 0.00 | 0.00 | 0.00 | 100 | 1018.7 |
| 20260509225917 | 43 | 172 | 0.0 | 0.0 | 0.00 | 0.00 | 0.00 | 100 | 1018.5 |
| 20260509225646 | 43 | 172 | 0.0 | 0.0 | 0.00 | 0.00 | 0.00 | 100 | 1018.8 |
| 20260509225636 | 43 | 172 | 0.0 | 0.0 | 0.00 | 0.00 | 0.00 | 100 | 1018.7 |
| 20260509225353 | 44 | 171 | 0.0 | 0.0 | 0.00 | 0.00 | 0.00 | 100 | 1018.7 |
| 20260509225343 | 43 | 172 | 0.0 | 0.0 | 0.00 | 0.00 | 0.00 | 100 | 1018.8 |
| 20260509225327 | 43 | 172 | 0.0 | 0.0 | 0.00 | 0.00 | 0.00 | 100 | 1018.5 |
| 20260509225312 | 44 | 172 | 0.0 | 0.0 | 0.00 | 0.00 | 0.00 | 100 | 1018.8 |
| 20260509225300 | 44 | 172 | 0.0 | 0.0 | 0.00 | 0.00 | 0.00 | 100 | 1018.8 |
| 20260509225247 | 44 | 172 | 0.0 | 0.0 | 0.00 | 0.00 | 0.00 | 100 | 1018.9 |
| 20260509225231 | 44 | 172 | 0.0 | 0.0 | 0.00 | 0.00 | 0.00 | 100 | 1018.7 |
| 20260509225215 | 44 | 172 | 0.0 | 0.0 | 0.00 | 0.00 | 0.00 | 100 | 1018.7 |
| 20260509225200 | 44 | 172 | 0.0 | 0.0 | 0.00 | 0.00 | 0.00 | 100 | 1018.8 |
| 20260509224928 | 44 | 172 | 0.0 | 0.0 | 0.00 | 0.00 | 0.00 | 100 | 1018.7 |
| 20260509224918 | 44 | 172 | 0.0 | 0.0 | 0.00 | 0.00 | 0.00 | 100 | 1018.9 |
| 20260509224902 | 44 | 172 | 0.0 | 0.0 | 0.00 | 0.00 | 0.00 | 100 | 1018.7 |
| 20260509224845 | 44 | 171 | 0.0 | 0.0 | 0.00 | 0.00 | 0.00 | 100 | 1018.9 |
| 20260509224829 | 44 | 171 | 0.0 | 0.0 | 0.00 | 0.00 | 0.00 | 100 | 1019.0 |
| 20260509223815 | 44 | 171 | 0.0 | 0.0 | 0.00 | 0.00 | 0.00 | 100 | 1018.5 |
| 20260509223716 | 44 | 171 | 0.0 | 0.0 | 0.00 | 0.00 | 0.00 | 100 | 1018.7 |
| 20260509223626 | 44 | 171 | 0.0 | 0.0 | 0.00 | 0.00 | 0.00 | 100 | 1018.8 |
| 20260509223614 | 44 | 171 | 0.0 | 0.0 | 0.00 | 0.00 | 0.00 | 100 | 1018.8 |
| 20260509223554 | 44 | 173 | 0.0 | 0.0 | 0.00 | 0.00 | 0.00 | 99 | 1019.0 |
| 20260509223545 | 44 | 172 | 0.0 | 0.0 | 0.00 | 0.00 | 0.00 | 100 | 1018.7 |
| 20260509223530 | 44 | 172 | 0.0 | 0.0 | 0.00 | 0.00 | 0.00 | 100 | 1018.9 |
| 20260509223514 | 43 | 172 | 0.0 | 0.0 | 0.00 | 0.00 | 0.00 | 100 | 1018.5 |
| 20260509223253 | 44 | 173 | 0.0 | 0.0 | 0.00 | 0.00 | 0.00 | 99 | 1018.9 |
| 20260509223243 | 43 | 172 | 0.0 | 0.0 | 0.00 | 0.00 | 0.00 | 100 | 1018.8 |
| 20260509223227 | 43 | 173 | 0.0 | 0.0 | 0.00 | 0.00 | 0.00 | 100 | 1018.9 |
| 20260509223216 | 43 | 173 | 0.0 | 0.0 | 0.00 | 0.00 | 0.00 | 100 | 1018.9 |
| 20260509223203 | 43 | 173 | 0.0 | 0.0 | 0.00 | 0.00 | 0.00 | 100 | 1018.8 |
| 20260509223148 | 43 | 173 | 0.0 | 0.0 | 0.00 | 0.00 | 0.00 | 100 | 1018.5 |
| 20260509223133 | 43 | 173 | 0.0 | 0.0 | 0.00 | 0.00 | 0.00 | 100 | 1018.5 |
| 20260509222856 | 44 | 173 | 0.0 | 0.0 | 0.00 | 0.00 | 0.00 | 99 | 1019.0 |
| 20260509222630 | 44 | 173 | 0.0 | 0.0 | 0.00 | 0.00 | 0.00 | 99 | 1018.9 |
| 20260509222613 | 44 | 173 | 0.0 | 0.0 | 0.00 | 0.00 | 0.00 | 99 | 1018.9 |
| 20260509222557 | 44 | 173 | 0.0 | 0.0 | 0.00 | 0.00 | 0.00 | 99 | 1018.8 |
| 20260509222542 | 44 | 173 | 0.0 | 0.0 | 0.00 | 0.00 | 0.00 | 99 | 1018.9 |
| 20260509222525 | 44 | 173 | 0.0 | 0.0 | 0.00 | 0.00 | 0.00 | 99 | 1018.9 |
| 20260509222036 | 44 | 173 | 0.0 | 0.0 | 0.00 | 0.00 | 0.00 | 99 | 1018.8 |
| 20260509222018 | 44 | 173 | 0.0 | 0.0 | 0.00 | 0.00 | 0.00 | 99 | 1018.7 |
| 20260509222002 | 44 | 173 | 0.0 | 0.0 | 0.00 | 0.00 | 0.00 | 99 | 1018.8 |
| 20260509221730 | 44 | 173 | 0.0 | 0.0 | 0.00 | 0.00 | 0.00 | 99 | 1019.0 |
| 20260509221452 | 44 | 173 | 0.0 | 0.0 | 0.00 | 0.00 | 0.00 | 99 | 1018.8 |
| 20260509221435 | 44 | 173 | 0.0 | 0.0 | 0.00 | 0.00 | 0.00 | 99 | 1019.0 |
| 20260509221128 | 44 | 173 | 0.0 | 0.0 | 0.00 | 0.00 | 0.00 | 99 | 1019.1 |
| 20260509221117 | 44 | 173 | 0.0 | 0.0 | 0.00 | 0.00 | 0.00 | 99 | 1019.1 |
| 20260509221051 | 44 | 173 | 0.0 | 0.0 | 0.00 | 0.00 | 0.00 | 99 | 1018.9 |
| 20260509221035 | 44 | 173 | 0.0 | 0.0 | 0.00 | 0.00 | 0.00 | 99 | 1018.9 |
| 20260509220715 | 44 | 173 | 0.0 | 0.0 | 0.00 | 0.00 | 0.00 | 99 | 1019.0 |
| 20260509220617 | 45 | 173 | 0.0 | 0.0 | 0.00 | 0.00 | 0.00 | 99 | 1018.9 |
| 20260509220600 | 45 | 173 | 0.0 | 0.0 | 0.00 | 0.00 | 0.00 | 99 | 1018.9 |
| 20260509220515 | 45 | 173 | 0.0 | 0.0 | 0.00 | 0.00 | 0.00 | 99 | 1018.9 |
| 20260509220415 | 45 | 173 | 0.0 | 0.0 | 0.00 | 0.00 | 0.00 | 99 | 1019.2 |
| 20260509220315 | 45 | 173 | 0.0 | 0.0 | 0.00 | 0.00 | 0.00 | 99 | 1019.0 |
| 20260509220215 | 45 | 173 | 0.0 | 0.0 | 0.00 | 0.00 | 0.00 | 99 | 1018.9 |
| 20260509220123 | 45 | 173 | 0.0 | 0.0 | 0.00 | 0.00 | 0.00 | 99 | 1019.0 |
| 20260509220112 | 45 | 173 | 0.0 | 0.0 | 0.00 | 0.00 | 0.00 | 99 | 1019.0 |
| 20260509220015 | 45 | 173 | 0.0 | 0.0 | 0.00 | 0.00 | 0.00 | 99 | 1018.8 |
| 20260509215915 | 45 | 173 | 0.0 | 0.0 | 0.00 | 0.00 | 0.00 | 99 | 1019.1 |
| 20260509215816 | 44 | 173 | 0.0 | 0.0 | 0.00 | 0.00 | 0.00 | 99 | 1019.0 |
| 20260509215714 | 44 | 173 | 0.0 | 0.0 | 0.00 | 0.00 | 0.00 | 99 | 1018.9 |
| 20260509215615 | 44 | 173 | 0.0 | 0.0 | 0.00 | 0.00 | 0.00 | 99 | 1019.1 |
| 20260509215559 | 44 | 173 | 0.0 | 0.0 | 0.00 | 0.00 | 0.00 | 99 | 1019.1 |
| 20260509215514 | 44 | 173 | 0.0 | 0.0 | 0.00 | 0.00 | 0.00 | 99 | 1019.1 |
| 20260509215415 | 44 | 173 | 0.0 | 0.0 | 0.00 | 0.00 | 0.00 | 99 | 1019.2 |
| 20260509215315 | 44 | 173 | 0.0 | 0.0 | 0.00 | 0.00 | 0.00 | 99 | 1019.1 |
| 20260509215215 | 45 | 173 | 0.0 | 0.0 | 0.00 | 0.00 | 0.00 | 99 | 1019.0 |
| 20260509215115 | 45 | 173 | 0.0 | 0.0 | 0.00 | 0.00 | 0.00 | 99 | 1019.1 |
| 20260509215100 | 45 | 173 | 0.0 | 0.0 | 0.00 | 0.00 | 0.00 | 99 | 1019.1 |
| 20260509215016 | 45 | 173 | 0.0 | 0.0 | 0.00 | 0.00 | 0.00 | 99 | 1019.1 |
| 20260509214915 | 45 | 173 | 0.0 | 0.0 | 0.00 | 0.00 | 0.00 | 99 | 1019.1 |
| 20260509214816 | 45 | 173 | 0.0 | 0.0 | 0.00 | 0.00 | 0.00 | 99 | 1019.0 |
| 20260509214716 | 45 | 173 | 0.0 | 0.0 | 0.00 | 0.00 | 0.00 | 99 | 1019.1 |
| 20260509214615 | 45 | 173 | 0.0 | 0.0 | 0.00 | 0.00 | 0.00 | 99 | 1019.3 |
| 20260509214559 | 45 | 173 | 0.0 | 0.0 | 0.00 | 0.00 | 0.00 | 99 | 1019.3 |
| 20260509214515 | 45 | 172 | 0.0 | 0.0 | 0.00 | 0.00 | 0.00 | 99 | 1019.3 |
| 20260509214453 | 45 | 173 | 0.0 | 0.0 | 0.00 | 0.00 | 0.00 | 98 | 1019.1 |
| 20260509214436 | 45 | 173 | 0.0 | 0.0 | 0.00 | 0.00 | 0.00 | 98 | 1018.9 |
| 20260509214116 | 45 | 172 | 0.0 | 0.0 | 0.00 | 0.00 | 0.00 | 98 | 1019.1 |
| 20260509214100 | 45 | 172 | 0.0 | 0.0 | 0.00 | 0.00 | 0.00 | 98 | 1019.1 |
| 20260509214015 | 45 | 172 | 0.0 | 0.0 | 0.00 | 0.00 | 0.00 | 98 | 1019.0 |
| 20260509213915 | 45 | 172 | 0.0 | 0.0 | 0.00 | 0.00 | 0.00 | 98 | 1018.9 |
| 20260509213815 | 45 | 172 | 0.0 | 0.0 | 0.00 | 0.00 | 0.00 | 98 | 1019.1 |
| 20260509213715 | 45 | 172 | 0.0 | 0.0 | 0.00 | 0.00 | 0.00 | 98 | 1019.0 |
| 20260509213615 | 45 | 172 | 0.0 | 0.0 | 0.00 | 0.00 | 0.00 | 98 | 1019.1 |
| 20260509213601 | 45 | 172 | 0.0 | 0.0 | 0.00 | 0.00 | 0.00 | 98 | 1019.1 |
| 20260509213551 | 45 | 172 | 0.0 | 0.0 | 0.00 | 0.00 | 0.00 | 98 | 1019.0 |
| 20260509213534 | 45 | 172 | 0.0 | 0.0 | 0.00 | 0.00 | 0.00 | 98 | 1018.9 |
| 20260509213215 | 45 | 172 | 0.0 | 0.0 | 0.00 | 0.00 | 0.00 | 97 | 1019.0 |
| 20260509213116 | 45 | 173 | 0.0 | 0.0 | 0.00 | 0.00 | 0.00 | 97 | 1019.1 |
| 20260509213059 | 45 | 173 | 0.0 | 0.0 | 0.00 | 0.00 | 0.00 | 97 | 1019.1 |
| 20260509213015 | 45 | 173 | 0.0 | 0.0 | 0.00 | 0.00 | 0.00 | 97 | 1019.1 |
| 20260509212915 | 45 | 173 | 0.0 | 0.0 | 0.00 | 0.00 | 0.00 | 97 | 1019.0 |
| 20260509212816 | 46 | 173 | 0.0 | 0.0 | 0.00 | 0.00 | 0.00 | 97 | 1019.2 |
| 20260509212758 | 46 | 173 | 0.0 | 0.0 | 0.00 | 0.00 | 0.00 | 97 | 1019.0 |
| 20260509212742 | 46 | 173 | 0.0 | 0.0 | 0.00 | 0.00 | 0.00 | 97 | 1018.9 |
| 20260509212730 | 46 | 173 | 0.0 | 0.0 | 0.00 | 0.00 | 0.00 | 97 | 1018.9 |
| 20260509212416 | 46 | 173 | 0.0 | 0.0 | 0.00 | 0.00 | 0.00 | 97 | 1019.0 |
| 20260509212315 | 46 | 173 | 0.0 | 0.0 | 0.00 | 0.00 | 0.00 | 97 | 1019.1 |
| 20260509212215 | 46 | 173 | 0.0 | 0.0 | 0.00 | 0.00 | 0.00 | 97 | 1018.8 |
| 20260509212115 | 46 | 173 | 0.0 | 0.0 | 0.00 | 0.00 | 0.00 | 96 | 1019.0 |
| 20260509212052 | 46 | 173 | 0.0 | 0.0 | 0.00 | 0.00 | 0.00 | 96 | 1019.0 |
| 20260509212007 | 46 | 173 | 0.0 | 0.0 | 0.00 | 0.00 | 0.00 | 96 | 1019.1 |
| 20260509211939 | 46 | 173 | 0.0 | 0.0 | 0.00 | 0.00 | 0.00 | 96 | 1019.0 |
| 20260509211931 | 46 | 173 | 0.0 | 0.0 | 0.00 | 0.00 | 0.00 | 96 | 1019.1 |
| 20260509211913 | 46 | 173 | 0.0 | 0.0 | 0.00 | 0.00 | 0.00 | 96 | 1019.2 |
| 20260509211857 | 46 | 173 | 0.0 | 0.0 | 0.00 | 0.00 | 0.00 | 96 | 1019.1 |
| 20260509211830 | 46 | 173 | 0.0 | 0.0 | 0.00 | 0.00 | 0.00 | 96 | 1019.1 |
| 20260509211820 | 46 | 173 | 0.0 | 0.0 | 0.00 | 0.00 | 0.00 | 96 | 1019.1 |
| 20260509211323 | 46 | 173 | 0.0 | 0.0 | 0.00 | 0.00 | 0.00 | 96 | 1019.1 |
| 20260509211307 | 46 | 173 | 0.0 | 0.0 | 0.00 | 0.00 | 0.00 | 96 | 1019.0 |
| 20260509211005 | 46 | 172 | 0.0 | 0.0 | 0.00 | 0.00 | 0.00 | 96 | 1019.1 |
| 20260509210905 | 46 | 172 | 0.0 | 0.0 | 0.00 | 0.00 | 0.00 | 96 | 1018.9 |
| 20260509210840 | 46 | 172 | 0.0 | 0.0 | 0.00 | 0.00 | 0.00 | 95 | 1019.3 |
| 20260509210831 | 46 | 172 | 0.0 | 0.0 | 0.00 | 0.00 | 0.00 | 96 | 1018.9 |
| 20260509210815 | 46 | 172 | 0.0 | 0.0 | 0.00 | 0.00 | 0.00 | 96 | 1019.1 |
| 20260509210746 | 46 | 172 | 0.0 | 0.0 | 0.00 | 0.00 | 0.00 | 96 | 1019.1 |
| 20260509210518 | 46 | 172 | 0.0 | 0.0 | 0.00 | 0.00 | 0.00 | 95 | 1019.2 |
| 20260509210501 | 46 | 172 | 0.0 | 0.0 | 0.00 | 0.00 | 0.00 | 95 | 1019.2 |
| 20260509210446 | 46 | 172 | 0.0 | 0.0 | 0.00 | 0.00 | 0.00 | 95 | 1019.2 |
| 20260509210429 | 46 | 172 | 0.0 | 0.0 | 0.00 | 0.00 | 0.00 | 95 | 1019.3 |
| 20260509210200 | 46 | 172 | 0.0 | 0.0 | 0.00 | 0.00 | 0.00 | 95 | 1019.1 |
| 20260509205925 | 47 | 172 | 0.0 | 0.0 | 0.00 | 0.00 | 0.00 | 94 | 1018.9 |
| 20260509205605 | 47 | 173 | 0.0 | 0.0 | 0.00 | 0.00 | 0.00 | 94 | 1019.1 |
| 20260509205550 | 47 | 172 | 0.0 | 0.0 | 0.00 | 0.00 | 0.00 | 94 | 1019.1 |
| 20260509205504 | 47 | 172 | 0.0 | 0.0 | 0.00 | 0.00 | 0.00 | 94 | 1019.1 |
| 20260509205443 | 47 | 172 | 0.0 | 0.0 | 0.00 | 0.00 | 0.00 | 94 | 1019.1 |
| 20260509205426 | 47 | 172 | 0.0 | 0.0 | 0.00 | 0.00 | 0.00 | 94 | 1019.1 |
| 20260509205137 | 47 | 172 | 0.0 | 0.0 | 0.00 | 0.00 | 0.00 | 94 | 1019.2 |
| 20260509205125 | 47 | 172 | 0.0 | 0.0 | 0.00 | 0.00 | 0.00 | 94 | 1019.1 |
| 20260509204805 | 48 | 172 | 0.0 | 0.0 | 0.00 | 0.00 | 0.00 | 94 | 1019.2 |
| 20260509204706 | 48 | 172 | 0.0 | 0.0 | 0.00 | 0.00 | 0.00 | 94 | 1019.4 |
| 20260509204614 | 48 | 172 | 0.0 | 0.0 | 0.00 | 0.00 | 0.00 | 94 | 1019.3 |
| 20260509204555 | 48 | 172 | 0.0 | 0.0 | 0.00 | 0.00 | 0.00 | 94 | 1019.6 |
| 20260509204545 | 48 | 172 | 0.0 | 0.0 | 0.00 | 0.00 | 0.00 | 94 | 1019.3 |
| 20260509204527 | 48 | 172 | 0.0 | 0.0 | 0.00 | 0.00 | 0.00 | 94 | 1019.3 |
| 20260509204511 | 48 | 172 | 0.0 | 0.0 | 0.00 | 0.00 | 0.00 | 94 | 1019.2 |
| 20260509204455 | 48 | 172 | 0.0 | 0.0 | 0.00 | 0.00 | 0.00 | 94 | 1019.3 |
| 20260509204440 | 48 | 172 | 0.0 | 0.0 | 0.00 | 0.00 | 0.00 | 94 | 1019.3 |
| 20260509203941 | 48 | 172 | 0.0 | 0.0 | 0.00 | 0.00 | 0.00 | 94 | 1019.1 |
| 20260509203925 | 48 | 172 | 0.0 | 0.0 | 0.00 | 0.00 | 0.00 | 94 | 1019.0 |